| time (UTC) | temp F | wind direction | speed knots | gust knots | rain 1hr in | rain 24hr in | rain mn in | humidity % | barometer mb |
| 20260510091339 | 68 | 246 | 4.3 | 10.4 | 0.00 | 0.44 | 0.01 | 73 | 1047.4 |
| 20260510091240 | 67 | 251 | 4.3 | 10.4 | 0.00 | 0.44 | 0.01 | 73 | 1047.4 |
| 20260510091132 | 67 | 248 | 4.3 | 10.4 | 0.00 | 0.44 | 0.01 | 73 | 1047.5 |
| 20260510091040 | 67 | 255 | 4.3 | 10.4 | 0.00 | 0.44 | 0.01 | 73 | 1047.5 |
| 20260510090939 | 67 | 262 | 5.2 | 10.4 | 0.00 | 0.44 | 0.01 | 74 | 1047.5 |
| 20260510090838 | 67 | 218 | 5.2 | 10.4 | 0.00 | 0.44 | 0.01 | 74 | 1047.5 |
| 20260510090733 | 67 | 231 | 5.2 | 10.4 | 0.00 | 0.44 | 0.01 | 74 | 1047.5 |
| 20260510090640 | 67 | 245 | 4.3 | 10.4 | 0.00 | 0.44 | 0.01 | 75 | 1047.5 |
| 20260510090633 | 67 | 246 | 4.3 | 10.4 | 0.00 | 0.44 | 0.01 | 75 | 1047.5 |
| 20260510090532 | 67 | 278 | 4.3 | 10.4 | 0.00 | 0.44 | 0.01 | 75 | 1047.5 |
| 20260510090430 | 67 | 209 | 5.2 | 8.7 | 0.00 | 0.44 | 0.01 | 73 | 1047.6 |
| 20260510090330 | 67 | 207 | 5.2 | 8.7 | 0.00 | 0.44 | 0.01 | 73 | 1047.6 |
| 20260510090229 | 67 | 208 | 5.2 | 8.7 | 0.00 | 0.44 | 0.01 | 75 | 1047.6 |
| 20260510090132 | 67 | 251 | 5.2 | 10.4 | 0.00 | 0.44 | 0.01 | 74 | 1047.5 |
| 20260510090112 | 67 | 229 | 6.1 | 10.4 | 0.00 | 0.44 | 0.01 | 75 | 1047.6 |
| 20260510085729 | 67 | 234 | 5.2 | 10.4 | 0.00 | 0.44 | 0.01 | 75 | 1047.5 |
| 20260510085638 | 67 | 252 | 6.1 | 10.4 | 0.00 | 0.44 | 0.01 | 75 | 1047.5 |
| 20260510085624 | 67 | 179 | 6.1 | 10.4 | 0.00 | 0.44 | 0.01 | 75 | 1047.5 |
| 20260510085614 | 67 | 221 | 5.2 | 10.4 | 0.00 | 0.44 | 0.01 | 76 | 1047.6 |
| 20260510085343 | 66 | 247 | 4.3 | 10.4 | 0.00 | 0.44 | 0.01 | 75 | 1047.5 |
| 20260510085323 | 66 | 236 | 3.5 | 9.6 | 0.00 | 0.44 | 0.01 | 76 | 1047.5 |
| 20260510085051 | 66 | 239 | 2.6 | 8.7 | 0.00 | 0.44 | 0.01 | 76 | 1047.5 |
| 20260510084717 | 66 | 247 | 1.7 | 8.7 | 0.00 | 0.44 | 0.01 | 76 | 1047.5 |
| 20260510084619 | 66 | 260 | 0.9 | 7.8 | 0.00 | 0.44 | 0.01 | 77 | 1047.6 |
| 20260510084509 | 66 | 260 | 0.9 | 7.8 | 0.00 | 0.44 | 0.01 | 78 | 1047.6 |
| 20260510084438 | 66 | 195 | 0.9 | 4.3 | 0.00 | 0.44 | 0.01 | 78 | 1047.6 |
| 20260510084428 | 65 | 84 | 0.9 | 3.5 | 0.00 | 0.44 | 0.01 | 79 | 1047.5 |
| 20260510084124 | 65 | 83 | 0.9 | 5.2 | 0.00 | 0.44 | 0.01 | 80 | 1047.6 |
| 20260510084115 | 65 | 84 | 1.7 | 5.2 | 0.00 | 0.44 | 0.01 | 80 | 1047.5 |
| 20260510084102 | 65 | 85 | 1.7 | 5.2 | 0.00 | 0.44 | 0.01 | 80 | 1047.6 |
| 20260510084053 | 65 | 84 | 1.7 | 5.2 | 0.00 | 0.44 | 0.01 | 80 | 1047.6 |
| 20260510084045 | 65 | 84 | 1.7 | 5.2 | 0.00 | 0.44 | 0.01 | 80 | 1047.6 |
| 20260510083504 | 64 | 84 | 1.7 | 5.2 | 0.00 | 0.44 | 0.01 | 80 | 1047.6 |
| 20260510083403 | 64 | 84 | 1.7 | 5.2 | 0.00 | 0.44 | 0.01 | 79 | 1047.6 |
| 20260510083301 | 64 | 84 | 1.7 | 5.2 | 0.00 | 0.44 | 0.01 | 80 | 1047.6 |
| 20260510083202 | 64 | 84 | 1.7 | 5.2 | 0.00 | 0.44 | 0.01 | 80 | 1047.6 |
| 20260510083101 | 64 | 83 | 1.7 | 4.3 | 0.00 | 0.44 | 0.01 | 80 | 1047.6 |
| 20260510083001 | 64 | 84 | 1.7 | 4.3 | 0.00 | 0.44 | 0.01 | 81 | 1047.6 |
| 20260510082902 | 64 | 85 | 1.7 | 4.3 | 0.00 | 0.44 | 0.01 | 82 | 1047.6 |
| 20260510082801 | 64 | 85 | 1.7 | 4.3 | 0.00 | 0.44 | 0.01 | 82 | 1047.6 |
| 20260510082700 | 64 | 79 | 1.7 | 4.3 | 0.00 | 0.44 | 0.01 | 83 | 1047.6 |
| 20260510082615 | 64 | 79 | 1.7 | 4.3 | 0.00 | 0.44 | 0.01 | 83 | 1047.6 |
| 20260510082559 | 64 | 79 | 1.7 | 4.3 | 0.00 | 0.44 | 0.01 | 83 | 1047.6 |
| 20260510082457 | 63 | 79 | 1.7 | 4.3 | 0.00 | 0.44 | 0.01 | 83 | 1047.6 |
| 20260510082424 | 63 | 79 | 1.7 | 4.3 | 0.00 | 0.44 | 0.01 | 84 | 1047.6 |
| 20260510082415 | 63 | 79 | 1.7 | 4.3 | 0.00 | 0.44 | 0.01 | 84 | 1047.6 |
| 20260510082112 | 63 | 79 | 2.6 | 6.1 | 0.00 | 0.44 | 0.01 | 83 | 1047.5 |
| 20260510082051 | 63 | 78 | 2.6 | 6.1 | 0.00 | 0.44 | 0.01 | 83 | 1047.5 |
| 20260510081951 | 62 | 79 | 2.6 | 6.1 | 0.00 | 0.44 | 0.01 | 83 | 1047.6 |
| 20260510081849 | 62 | 79 | 2.6 | 6.1 | 0.00 | 0.44 | 0.01 | 84 | 1047.6 |
| 20260510081747 | 62 | 79 | 2.6 | 6.1 | 0.00 | 0.44 | 0.01 | 84 | 1047.6 |
| 20260510081647 | 62 | 79 | 3.5 | 6.1 | 0.00 | 0.44 | 0.01 | 84 | 1047.6 |
| 20260510081612 | 62 | 79 | 3.5 | 6.1 | 0.00 | 0.44 | 0.01 | 85 | 1047.6 |
| 20260510081547 | 62 | 79 | 3.5 | 6.1 | 0.00 | 0.44 | 0.01 | 85 | 1047.6 |
| 20260510081447 | 62 | 79 | 3.5 | 6.1 | 0.00 | 0.44 | 0.01 | 85 | 1047.7 |
| 20260510081411 | 62 | 79 | 3.5 | 7.8 | 0.00 | 0.44 | 0.01 | 85 | 1047.7 |
| 20260510081401 | 62 | 77 | 3.5 | 7.8 | 0.00 | 0.44 | 0.01 | 85 | 1047.7 |
| 20260510081112 | 62 | 60 | 3.5 | 7.8 | 0.00 | 0.44 | 0.01 | 85 | 1047.7 |
| 20260510081042 | 62 | 60 | 3.5 | 7.8 | 0.00 | 0.44 | 0.01 | 85 | 1047.7 |
| 20260510080941 | 62 | 60 | 3.5 | 7.8 | 0.00 | 0.44 | 0.01 | 85 | 1047.7 |
| 20260510080841 | 62 | 60 | 3.5 | 7.8 | 0.00 | 0.44 | 0.01 | 85 | 1047.7 |
| 20260510080735 | 62 | 60 | 3.5 | 7.8 | 0.00 | 0.44 | 0.01 | 85 | 1047.7 |
| 20260510080635 | 62 | 57 | 3.5 | 7.8 | 0.00 | 0.44 | 0.01 | 85 | 1047.7 |
| 20260510080610 | 62 | 56 | 3.5 | 7.8 | 0.00 | 0.44 | 0.01 | 85 | 1047.7 |
| 20260510080559 | 62 | 57 | 2.6 | 7.8 | 0.00 | 0.44 | 0.01 | 85 | 1047.7 |
| 20260510080551 | 62 | 56 | 2.6 | 7.8 | 0.00 | 0.44 | 0.01 | 85 | 1047.7 |
| 20260510080539 | 62 | 114 | 2.6 | 6.1 | 0.00 | 0.44 | 0.01 | 85 | 1047.7 |
| 20260510080312 | 62 | 116 | 2.6 | 6.1 | 0.00 | 0.44 | 0.01 | 86 | 1047.7 |
| 20260510080300 | 62 | 131 | 2.6 | 6.1 | 0.00 | 0.44 | 0.01 | 86 | 1047.7 |
| 20260510075956 | 62 | 132 | 2.6 | 6.1 | 0.00 | 0.44 | 0.01 | 86 | 1047.6 |
| 20260510075942 | 62 | 359 | 1.7 | 5.2 | 0.00 | 0.44 | 0.01 | 86 | 1047.6 |
| 20260510075931 | 62 | 344 | 1.7 | 5.2 | 0.00 | 0.44 | 0.01 | 86 | 1047.6 |
| 20260510075918 | 62 | 343 | 1.7 | 5.2 | 0.00 | 0.44 | 0.01 | 86 | 1047.6 |
| 20260510075653 | 62 | 343 | 1.7 | 5.2 | 0.00 | 0.44 | 0.01 | 86 | 1047.6 |
| 20260510075330 | 61 | 342 | 1.7 | 5.2 | 0.00 | 0.44 | 0.01 | 86 | 1047.6 |
| 20260510075229 | 61 | 341 | 1.7 | 5.2 | 0.00 | 0.44 | 0.01 | 86 | 1047.6 |
| 20260510075106 | 61 | 337 | 1.7 | 3.5 | 0.00 | 0.44 | 0.01 | 86 | 1047.6 |
| 20260510075029 | 61 | 337 | 0.9 | 3.5 | 0.00 | 0.44 | 0.01 | 87 | 1047.6 |
| 20260510074929 | 61 | 337 | 0.9 | 3.5 | 0.00 | 0.44 | 0.01 | 87 | 1047.6 |
| 20260510074829 | 61 | 337 | 0.9 | 3.5 | 0.00 | 0.44 | 0.01 | 87 | 1047.6 |
| 20260510074818 | 61 | 337 | 1.7 | 3.5 | 0.00 | 0.44 | 0.01 | 87 | 1047.6 |
| 20260510074758 | 61 | 337 | 1.7 | 3.5 | 0.00 | 0.44 | 0.01 | 87 | 1047.6 |
| 20260510074429 | 61 | 337 | 1.7 | 3.5 | 0.00 | 0.44 | 0.01 | 88 | 1047.6 |
| 20260510074356 | 61 | 332 | 1.7 | 3.5 | 0.00 | 0.44 | 0.01 | 88 | 1047.6 |
| 20260510074348 | 61 | 332 | 1.7 | 3.5 | 0.00 | 0.44 | 0.01 | 87 | 1047.6 |
| 20260510074106 | 60 | 332 | 1.7 | 3.5 | 0.00 | 0.44 | 0.01 | 87 | 1047.6 |
| 20260510074033 | 60 | 332 | 1.7 | 3.5 | 0.00 | 0.44 | 0.01 | 87 | 1047.6 |
| 20260510073933 | 60 | 332 | 1.7 | 3.5 | 0.00 | 0.44 | 0.01 | 87 | 1047.6 |
| 20260510073924 | 60 | 334 | 1.7 | 3.5 | 0.00 | 0.44 | 0.01 | 87 | 1047.6 |
| 20260510073918 | 60 | 330 | 0.9 | 3.5 | 0.00 | 0.44 | 0.01 | 87 | 1047.6 |
| 20260510073853 | 60 | 330 | 0.9 | 3.5 | 0.00 | 0.44 | 0.01 | 87 | 1047.6 |
| 20260510073842 | 60 | 330 | 0.9 | 3.5 | 0.00 | 0.44 | 0.01 | 87 | 1047.6 |
| 20260510073616 | 60 | 329 | 0.9 | 2.6 | 0.00 | 0.44 | 0.01 | 88 | 1047.6 |
| 20260510073606 | 60 | 329 | 0.9 | 2.6 | 0.00 | 0.44 | 0.01 | 89 | 1047.5 |
| 20260510073334 | 60 | 329 | 0.9 | 2.6 | 0.00 | 0.44 | 0.01 | 89 | 1047.5 |
| 20260510073325 | 60 | 329 | 0.9 | 2.6 | 0.00 | 0.44 | 0.01 | 89 | 1047.5 |
| 20260510073318 | 60 | 329 | 0.9 | 2.6 | 0.00 | 0.44 | 0.01 | 89 | 1047.5 |
| 20260510073050 | 59 | 329 | 0.9 | 2.6 | 0.00 | 0.44 | 0.01 | 89 | 1047.5 |
| 20260510072819 | 59 | 329 | 0.9 | 3.5 | 0.00 | 0.44 | 0.01 | 89 | 1047.5 |
| 20260510072807 | 59 | 329 | 1.7 | 3.5 | 0.00 | 0.44 | 0.01 | 90 | 1047.5 |
| 20260510072227 | 59 | 328 | 1.7 | 3.5 | 0.00 | 0.44 | 0.01 | 90 | 1047.4 |
| 20260510072203 | 58 | 329 | 1.7 | 3.5 | 0.00 | 0.44 | 0.01 | 90 | 1047.5 |
| 20260510072155 | 58 | 328 | 1.7 | 3.5 | 0.00 | 0.44 | 0.01 | 90 | 1047.5 |
| 20260510072144 | 58 | 329 | 1.7 | 4.3 | 0.00 | 0.44 | 0.01 | 90 | 1047.5 |
| 20260510072130 | 58 | 329 | 1.7 | 4.3 | 0.00 | 0.44 | 0.01 | 90 | 1047.5 |
| 20260510071904 | 58 | 329 | 2.6 | 4.3 | 0.00 | 0.44 | 0.01 | 90 | 1047.4 |
| 20260510071609 | 58 | 329 | 2.6 | 4.3 | 0.00 | 0.44 | 0.01 | 90 | 1047.5 |
| 20260510071520 | 58 | 329 | 2.6 | 4.3 | 0.00 | 0.44 | 0.01 | 90 | 1047.5 |
| 20260510071420 | 58 | 329 | 2.6 | 4.3 | 0.00 | 0.44 | 0.01 | 89 | 1047.4 |
| 20260510071319 | 57 | 329 | 2.6 | 4.3 | 0.00 | 0.44 | 0.01 | 89 | 1047.4 |
| 20260510071219 | 57 | 329 | 2.6 | 4.3 | 0.00 | 0.44 | 0.01 | 90 | 1047.4 |
| 20260510071117 | 57 | 331 | 2.6 | 4.3 | 0.00 | 0.44 | 0.01 | 90 | 1047.5 |
| 20260510071106 | 57 | 329 | 2.6 | 4.3 | 0.00 | 0.44 | 0.01 | 90 | 1047.5 |
| 20260510071017 | 57 | 328 | 2.6 | 4.3 | 0.00 | 0.44 | 0.01 | 90 | 1047.4 |
| 20260510070917 | 57 | 325 | 2.6 | 4.3 | 0.00 | 0.44 | 0.01 | 90 | 1047.5 |
| 20260510070815 | 57 | 324 | 2.6 | 4.3 | 0.00 | 0.44 | 0.01 | 90 | 1047.5 |
| 20260510070753 | 57 | 324 | 2.6 | 4.3 | 0.00 | 0.44 | 0.01 | 90 | 1047.5 |
| 20260510070737 | 57 | 324 | 2.6 | 4.3 | 0.00 | 0.44 | 0.01 | 90 | 1047.4 |
| 20260510070424 | 57 | 317 | 2.6 | 4.3 | 0.00 | 0.44 | 0.01 | 90 | 1047.4 |
| 20260510070415 | 57 | 317 | 2.6 | 4.3 | 0.00 | 0.44 | 0.01 | 90 | 1047.5 |
| 20260510070402 | 57 | 312 | 2.6 | 3.5 | 0.00 | 0.44 | 0.01 | 91 | 1047.4 |
| 20260510070346 | 57 | 311 | 2.6 | 3.5 | 0.00 | 0.44 | 0.01 | 91 | 1047.4 |
| 20260510065803 | 57 | 310 | 1.7 | 3.5 | 0.00 | 0.44 | 0.01 | 92 | 1047.5 |
| 20260510065742 | 57 | 308 | 1.7 | 3.5 | 0.00 | 0.44 | 0.01 | 92 | 1047.4 |
| 20260510065725 | 57 | 308 | 1.7 | 3.5 | 0.00 | 0.44 | 0.01 | 92 | 1047.4 |
| 20260510065405 | 57 | 299 | 1.7 | 2.6 | 0.00 | 0.44 | 0.01 | 92 | 1047.4 |
| 20260510065343 | 57 | 299 | 1.7 | 2.6 | 0.00 | 0.44 | 0.01 | 93 | 1047.4 |
| 20260510065335 | 57 | 299 | 0.9 | 2.6 | 0.00 | 0.44 | 0.01 | 93 | 1047.4 |
| 20260510065106 | 57 | 299 | 0.9 | 2.6 | 0.00 | 0.44 | 0.01 | 93 | 1047.4 |
| 20260510065044 | 57 | 299 | 0.9 | 2.6 | 0.00 | 0.44 | 0.01 | 93 | 1047.4 |
| 20260510065034 | 57 | 299 | 0.9 | 2.6 | 0.00 | 0.44 | 0.01 | 93 | 1047.4 |
| 20260510064739 | 57 | 299 | 0.9 | 1.7 | 0.00 | 0.44 | 0.01 | 93 | 1047.4 |
| 20260510064724 | 56 | 299 | 0.9 | 1.7 | 0.00 | 0.44 | 0.01 | 93 | 1047.3 |
| 20260510064711 | 56 | 299 | 0.9 | 1.7 | 0.00 | 0.44 | 0.01 | 93 | 1047.4 |
| 20260510064701 | 56 | 299 | 0.9 | 2.6 | 0.00 | 0.44 | 0.01 | 93 | 1047.4 |
| 20260510064653 | 56 | 299 | 0.9 | 2.6 | 0.00 | 0.44 | 0.01 | 93 | 1047.4 |
| 20260510064631 | 56 | 299 | 0.9 | 2.6 | 0.00 | 0.44 | 0.01 | 93 | 1047.4 |
| 20260510064404 | 56 | 299 | 0.9 | 2.6 | 0.00 | 0.44 | 0.01 | 93 | 1047.3 |
| 20260510064132 | 55 | 298 | 0.9 | 2.6 | 0.00 | 0.44 | 0.01 | 93 | 1047.4 |
| 20260510063621 | 55 | 297 | 0.9 | 2.6 | 0.00 | 0.44 | 0.01 | 93 | 1047.3 |
| 20260510063612 | 55 | 298 | 0.9 | 2.6 | 0.00 | 0.44 | 0.01 | 93 | 1047.3 |
| 20260510063606 | 55 | 298 | 0.0 | 2.6 | 0.00 | 0.44 | 0.01 | 93 | 1047.3 |
| 20260510063242 | 55 | 298 | 0.0 | 1.7 | 0.00 | 0.44 | 0.01 | 93 | 1047.3 |
| 20260510063222 | 55 | 298 | 0.0 | 1.7 | 0.00 | 0.44 | 0.01 | 93 | 1047.3 |
| 20260510063212 | 55 | 298 | 0.0 | 1.7 | 0.00 | 0.44 | 0.01 | 94 | 1047.3 |
| 20260510063204 | 55 | 297 | 0.0 | 1.7 | 0.00 | 0.44 | 0.01 | 94 | 1047.3 |
| 20260510062839 | 54 | 298 | 0.0 | 1.7 | 0.00 | 0.44 | 0.01 | 93 | 1047.3 |
| 20260510062740 | 54 | 297 | 0.0 | 1.7 | 0.00 | 0.44 | 0.01 | 93 | 1047.3 |
| 20260510062643 | 54 | 297 | 0.0 | 1.7 | 0.00 | 0.44 | 0.01 | 94 | 1047.3 |
| 20260510062604 | 54 | 298 | 0.0 | 1.7 | 0.00 | 0.44 | 0.01 | 94 | 1047.3 |
| 20260510062542 | 54 | 298 | 0.0 | 1.7 | 0.00 | 0.44 | 0.01 | 94 | 1047.3 |
| 20260510062441 | 54 | 297 | 0.9 | 1.7 | 0.00 | 0.44 | 0.01 | 93 | 1047.3 |
| 20260510062340 | 54 | 298 | 0.9 | 1.7 | 0.00 | 0.44 | 0.01 | 93 | 1047.3 |
| 20260510062239 | 54 | 297 | 0.9 | 1.7 | 0.00 | 0.44 | 0.01 | 94 | 1047.3 |
| 20260510062139 | 53 | 297 | 0.9 | 2.6 | 0.00 | 0.44 | 0.01 | 94 | 1047.3 |
| 20260510062104 | 53 | 297 | 0.9 | 3.5 | 0.00 | 0.44 | 0.01 | 93 | 1047.3 |
| 20260510062040 | 53 | 298 | 0.9 | 3.5 | 0.00 | 0.44 | 0.01 | 93 | 1047.3 |
| 20260510061939 | 53 | 297 | 0.9 | 3.5 | 0.00 | 0.44 | 0.01 | 93 | 1047.4 |
| 20260510061838 | 53 | 298 | 1.7 | 3.5 | 0.00 | 0.44 | 0.01 | 93 | 1047.3 |
| 20260510061735 | 53 | 297 | 1.7 | 3.5 | 0.00 | 0.44 | 0.01 | 94 | 1047.3 |
| 20260510061636 | 53 | 298 | 1.7 | 3.5 | 0.00 | 0.44 | 0.01 | 93 | 1047.3 |
| 20260510061606 | 53 | 297 | 1.7 | 3.5 | 0.00 | 0.44 | 0.01 | 93 | 1047.3 |
| 20260510061558 | 52 | 298 | 1.7 | 3.5 | 0.00 | 0.44 | 0.01 | 93 | 1047.3 |
| 20260510061544 | 52 | 297 | 2.6 | 3.5 | 0.00 | 0.44 | 0.01 | 94 | 1047.3 |
| 20260510061533 | 52 | 297 | 2.6 | 3.5 | 0.00 | 0.44 | 0.01 | 94 | 1047.3 |
| 20260510061522 | 52 | 297 | 2.6 | 3.5 | 0.00 | 0.44 | 0.01 | 93 | 1047.3 |
| 20260510061252 | 52 | 298 | 1.7 | 2.6 | 0.00 | 0.44 | 0.01 | 93 | 1047.3 |
| 20260510061244 | 52 | 297 | 1.7 | 2.6 | 0.00 | 0.44 | 0.01 | 94 | 1047.3 |
| 20260510061237 | 52 | 297 | 1.7 | 2.6 | 0.00 | 0.44 | 0.01 | 94 | 1047.3 |
| 20260510061230 | 51 | 298 | 1.7 | 2.6 | 0.00 | 0.44 | 0.01 | 94 | 1047.3 |
| 20260510060948 | 51 | 298 | 1.7 | 2.6 | 0.00 | 0.44 | 0.01 | 93 | 1047.3 |
| 20260510060714 | 51 | 297 | 1.7 | 2.6 | 0.00 | 0.44 | 0.01 | 93 | 1047.2 |
| 20260510060132 | 51 | 297 | 1.7 | 2.6 | 0.00 | 0.44 | 0.01 | 94 | 1047.2 |
| 20260510060032 | 51 | 298 | 1.7 | 2.6 | 0.00 | 0.44 | 0.01 | 93 | 1047.2 |
| 20260510055932 | 51 | 297 | 1.7 | 3.5 | 0.00 | 0.44 | 0.01 | 93 | 1047.2 |
| 20260510055832 | 50 | 297 | 1.7 | 3.5 | 0.00 | 0.44 | 0.01 | 93 | 1047.2 |
| 20260510055813 | 50 | 298 | 1.7 | 3.5 | 0.00 | 0.44 | 0.01 | 94 | 1047.2 |
| 20260510055805 | 50 | 297 | 1.7 | 3.5 | 0.00 | 0.44 | 0.01 | 94 | 1047.2 |
| 20260510055755 | 50 | 298 | 1.7 | 3.5 | 0.00 | 0.44 | 0.01 | 94 | 1047.2 |
| 20260510055432 | 50 | 298 | 1.7 | 3.5 | 0.00 | 0.44 | 0.01 | 93 | 1047.2 |
| 20260510055332 | 50 | 297 | 1.7 | 3.5 | 0.00 | 0.44 | 0.01 | 93 | 1047.2 |
| 20260510055233 | 50 | 297 | 1.7 | 3.5 | 0.00 | 0.44 | 0.01 | 94 | 1047.1 |
| 20260510055131 | 50 | 298 | 1.7 | 3.5 | 0.00 | 0.44 | 0.01 | 94 | 1047.1 |
| 20260510055112 | 50 | 297 | 1.7 | 3.5 | 0.00 | 0.44 | 0.01 | 94 | 1047.1 |
| 20260510055105 | 50 | 298 | 1.7 | 3.5 | 0.00 | 0.44 | 0.01 | 94 | 1047.1 |
| 20260510055058 | 49 | 297 | 1.7 | 3.5 | 0.00 | 0.44 | 0.01 | 94 | 1047.1 |
| 20260510055039 | 49 | 297 | 1.7 | 3.5 | 0.00 | 0.44 | 0.01 | 93 | 1047.2 |
| 20260510055031 | 49 | 298 | 1.7 | 3.5 | 0.00 | 0.44 | 0.01 | 93 | 1047.1 |
| 20260510054749 | 49 | 298 | 1.7 | 3.5 | 0.00 | 0.44 | 0.01 | 93 | 1047.2 |
| 20260510054431 | 49 | 297 | 2.6 | 3.5 | 0.00 | 0.44 | 0.01 | 93 | 1047.2 |
| 20260510054332 | 49 | 297 | 2.6 | 3.5 | 0.00 | 0.44 | 0.01 | 94 | 1047.2 |
| 20260510054232 | 49 | 297 | 1.7 | 3.5 | 0.00 | 0.44 | 0.01 | 94 | 1047.2 |
| 20260510054131 | 49 | 297 | 1.7 | 3.5 | 0.00 | 0.44 | 0.01 | 94 | 1047.2 |
| 20260510054033 | 49 | 298 | 1.7 | 3.5 | 0.00 | 0.44 | 0.01 | 94 | 1047.2 |
| 20260510053931 | 49 | 298 | 1.7 | 3.5 | 0.00 | 0.44 | 0.01 | 94 | 1047.2 |
| 20260510053831 | 49 | 298 | 1.7 | 3.5 | 0.00 | 0.44 | 0.01 | 94 | 1047.2 |
| 20260510053738 | 49 | 297 | 1.7 | 3.5 | 0.00 | 0.44 | 0.01 | 93 | 1047.2 |
| 20260510053716 | 49 | 298 | 1.7 | 3.5 | 0.00 | 0.44 | 0.01 | 93 | 1047.2 |
| 20260510053651 | 49 | 298 | 1.7 | 3.5 | 0.00 | 0.44 | 0.01 | 93 | 1047.2 |
| 20260510053329 | 49 | 298 | 1.7 | 3.5 | 0.00 | 0.44 | 0.01 | 93 | 1047.2 |
| 20260510053229 | 48 | 298 | 1.7 | 3.5 | 0.00 | 0.44 | 0.01 | 94 | 1047.2 |
| 20260510053130 | 48 | 298 | 1.7 | 3.5 | 0.00 | 0.44 | 0.01 | 94 | 1047.1 |
| 20260510053104 | 48 | 298 | 1.7 | 3.5 | 0.00 | 0.44 | 0.01 | 94 | 1047.1 |
| 20260510053057 | 48 | 298 | 1.7 | 3.5 | 0.00 | 0.44 | 0.01 | 94 | 1047.1 |
| 20260510052729 | 48 | 298 | 1.7 | 2.6 | 0.00 | 0.44 | 0.01 | 93 | 1047.2 |
| 20260510052627 | 48 | 298 | 1.7 | 2.6 | 0.00 | 0.44 | 0.01 | 93 | 1047.2 |
| 20260510052522 | 48 | 298 | 1.7 | 2.6 | 0.00 | 0.44 | 0.01 | 93 | 1047.2 |
| 20260510052422 | 48 | 297 | 1.7 | 3.5 | 0.00 | 0.44 | 0.01 | 93 | 1047.2 |
| 20260510052321 | 48 | 299 | 1.7 | 3.5 | 0.00 | 0.44 | 0.01 | 93 | 1047.2 |
| 20260510052222 | 48 | 298 | 2.6 | 3.5 | 0.00 | 0.44 | 0.01 | 94 | 1047.2 |
| 20260510052121 | 48 | 298 | 2.6 | 3.5 | 0.00 | 0.44 | 0.01 | 94 | 1047.3 |
| 20260510052044 | 48 | 298 | 2.6 | 3.5 | 0.00 | 0.44 | 0.01 | 94 | 1047.3 |
| 20260510052018 | 48 | 298 | 2.6 | 3.5 | 0.00 | 0.44 | 0.01 | 94 | 1047.2 |
| 20260510051934 | 48 | 298 | 2.6 | 3.5 | 0.00 | 0.44 | 0.01 | 94 | 1047.2 |
| 20260510051926 | 48 | 298 | 2.6 | 3.5 | 0.00 | 0.44 | 0.01 | 94 | 1047.2 |
| 20260510051915 | 47 | 298 | 2.6 | 3.5 | 0.00 | 0.44 | 0.01 | 94 | 1047.2 |
| 20260510051903 | 47 | 299 | 2.6 | 3.5 | 0.00 | 0.44 | 0.01 | 94 | 1047.2 |
| 20260510051633 | 47 | 298 | 1.7 | 3.5 | 0.00 | 0.44 | 0.01 | 93 | 1047.2 |
| 20260510051321 | 47 | 298 | 1.7 | 3.5 | 0.00 | 0.44 | 0.01 | 93 | 1047.1 |
| 20260510051308 | 47 | 299 | 1.7 | 3.5 | 0.00 | 0.44 | 0.01 | 93 | 1047.1 |
| 20260510051300 | 47 | 298 | 1.7 | 3.5 | 0.00 | 0.44 | 0.01 | 93 | 1047.1 |
| 20260510051248 | 47 | 299 | 1.7 | 3.5 | 0.00 | 0.44 | 0.01 | 93 | 1047.1 |
| 20260510051235 | 47 | 298 | 2.6 | 3.5 | 0.00 | 0.44 | 0.01 | 93 | 1047.1 |
| 20260510051007 | 47 | 299 | 2.6 | 3.5 | 0.00 | 0.44 | 0.01 | 93 | 1047.0 |
| 20260510050736 | 47 | 298 | 2.6 | 3.5 | 0.00 | 0.44 | 0.01 | 93 | 1047.1 |
| 20260510050725 | 47 | 298 | 2.6 | 3.5 | 0.00 | 0.44 | 0.01 | 93 | 1047.1 |
| 20260510050718 | 47 | 299 | 2.6 | 3.5 | 0.00 | 0.44 | 0.01 | 93 | 1047.1 |
| 20260510050656 | 47 | 298 | 2.6 | 3.5 | 0.00 | 0.44 | 0.01 | 93 | 1047.1 |
| 20260510050648 | 47 | 299 | 2.6 | 3.5 | 0.00 | 0.44 | 0.01 | 93 | 1047.1 |
| 20260510050420 | 47 | 300 | 2.6 | 3.5 | 0.00 | 0.44 | 0.01 | 93 | 1047.2 |
| 20260510050409 | 47 | 299 | 2.6 | 3.5 | 0.00 | 0.44 | 0.01 | 93 | 1047.2 |
| 20260510050353 | 47 | 300 | 2.6 | 3.5 | 0.00 | 0.44 | 0.01 | 93 | 1047.1 |
| 20260510050345 | 47 | 300 | 1.7 | 3.5 | 0.00 | 0.44 | 0.01 | 93 | 1047.1 |
| 20260510045631 | 47 | 300 | 1.7 | 3.5 | 0.00 | 0.44 | 0.01 | 93 | 1047.1 |
| 20260510045306 | 47 | 299 | 0.9 | 3.5 | 0.00 | 0.44 | 0.01 | 93 | 1047.1 |
| 20260510045205 | 47 | 300 | 0.9 | 2.6 | 0.00 | 0.44 | 0.01 | 93 | 1047.1 |
| 20260510045104 | 47 | 300 | 0.9 | 2.6 | 0.00 | 0.44 | 0.01 | 93 | 1047.2 |
| 20260510045048 | 47 | 301 | 0.9 | 2.6 | 0.00 | 0.44 | 0.01 | 93 | 1047.1 |
| 20260510045036 | 47 | 300 | 0.9 | 2.6 | 0.00 | 0.44 | 0.01 | 93 | 1047.1 |
| 20260510045029 | 47 | 300 | 0.9 | 2.6 | 0.00 | 0.44 | 0.01 | 93 | 1047.1 |
| 20260510044747 | 47 | 300 | 1.7 | 2.6 | 0.00 | 0.44 | 0.01 | 93 | 1047.2 |
| 20260510044739 | 47 | 301 | 1.7 | 2.6 | 0.00 | 0.44 | 0.01 | 93 | 1047.2 |
| 20260510044725 | 47 | 301 | 1.7 | 2.6 | 0.00 | 0.44 | 0.01 | 93 | 1047.2 |
| 20260510044405 | 47 | 300 | 1.7 | 2.6 | 0.00 | 0.44 | 0.01 | 93 | 1047.2 |
| 20260510044320 | 47 | 300 | 1.7 | 2.6 | 0.00 | 0.44 | 0.01 | 93 | 1047.2 |
| 20260510044312 | 47 | 301 | 1.7 | 2.6 | 0.00 | 0.44 | 0.01 | 93 | 1047.2 |
| 20260510044301 | 47 | 301 | 1.7 | 2.6 | 0.00 | 0.44 | 0.01 | 93 | 1047.2 |
| 20260510044001 | 47 | 301 | 1.7 | 2.6 | 0.00 | 0.44 | 0.01 | 93 | 1047.2 |
| 20260510043902 | 47 | 300 | 1.7 | 2.6 | 0.00 | 0.44 | 0.01 | 93 | 1047.2 |
| 20260510043759 | 47 | 301 | 1.7 | 2.6 | 0.00 | 0.44 | 0.01 | 93 | 1047.2 |
| 20260510043657 | 47 | 300 | 1.7 | 2.6 | 0.00 | 0.44 | 0.01 | 93 | 1047.2 |
| 20260510043559 | 47 | 301 | 1.7 | 3.5 | 0.00 | 0.44 | 0.01 | 93 | 1047.2 |
| 20260510043549 | 47 | 301 | 1.7 | 3.5 | 0.00 | 0.44 | 0.01 | 93 | 1047.3 |
| 20260510043454 | 47 | 300 | 1.7 | 3.5 | 0.00 | 0.44 | 0.01 | 93 | 1047.3 |
| 20260510043352 | 47 | 302 | 1.7 | 3.5 | 0.00 | 0.44 | 0.01 | 93 | 1047.2 |
| 20260510043251 | 47 | 300 | 1.7 | 3.5 | 0.00 | 0.44 | 0.01 | 93 | 1047.3 |
| 20260510043228 | 47 | 301 | 1.7 | 3.5 | 0.00 | 0.44 | 0.01 | 93 | 1047.3 |
| 20260510043221 | 47 | 300 | 1.7 | 3.5 | 0.00 | 0.44 | 0.01 | 93 | 1047.4 |
| 20260510043211 | 47 | 301 | 1.7 | 3.5 | 0.00 | 0.44 | 0.01 | 93 | 1047.4 |
| 20260510042845 | 47 | 300 | 1.7 | 3.5 | 0.00 | 0.44 | 0.01 | 93 | 1047.4 |
| 20260510042747 | 47 | 301 | 1.7 | 3.5 | 0.00 | 0.44 | 0.01 | 93 | 1047.3 |
| 20260510042645 | 47 | 300 | 1.7 | 3.5 | 0.00 | 0.44 | 0.01 | 93 | 1047.4 |
| 20260510042613 | 47 | 301 | 1.7 | 3.5 | 0.00 | 0.44 | 0.01 | 93 | 1047.4 |
| 20260510042606 | 47 | 301 | 2.6 | 3.5 | 0.00 | 0.44 | 0.01 | 93 | 1047.4 |
| 20260510042551 | 47 | 301 | 2.6 | 3.5 | 0.00 | 0.44 | 0.01 | 93 | 1047.4 |
| 20260510042543 | 47 | 301 | 2.6 | 3.5 | 0.00 | 0.44 | 0.01 | 93 | 1047.4 |
| 20260510042533 | 47 | 301 | 2.6 | 3.5 | 0.00 | 0.44 | 0.01 | 93 | 1047.4 |
| 20260510042309 | 47 | 301 | 2.6 | 3.5 | 0.00 | 0.44 | 0.01 | 93 | 1047.4 |
| 20260510042300 | 47 | 301 | 2.6 | 3.5 | 0.00 | 0.44 | 0.01 | 93 | 1047.4 |
| 20260510042248 | 47 | 301 | 2.6 | 3.5 | 0.00 | 0.44 | 0.01 | 93 | 1047.4 |
| 20260510041758 | 47 | 301 | 2.6 | 4.3 | 0.00 | 0.44 | 0.01 | 93 | 1047.3 |
| 20260510041510 | 47 | 301 | 2.6 | 4.3 | 0.00 | 0.44 | 0.01 | 93 | 1047.3 |
| 20260510041459 | 47 | 301 | 2.6 | 4.3 | 0.00 | 0.44 | 0.01 | 93 | 1047.3 |
| 20260510041137 | 47 | 301 | 2.6 | 4.3 | 0.00 | 0.44 | 0.01 | 93 | 1047.3 |
| 20260510041035 | 47 | 301 | 2.6 | 4.3 | 0.00 | 0.44 | 0.01 | 93 | 1047.3 |
| 20260510040937 | 47 | 301 | 2.6 | 4.3 | 0.00 | 0.44 | 0.01 | 93 | 1047.3 |
| 20260510040853 | 47 | 301 | 2.6 | 4.3 | 0.00 | 0.44 | 0.01 | 93 | 1047.3 |
| 20260510040844 | 47 | 301 | 1.7 | 4.3 | 0.00 | 0.44 | 0.01 | 93 | 1047.3 |
| 20260510040835 | 47 | 301 | 1.7 | 4.3 | 0.00 | 0.44 | 0.01 | 93 | 1047.3 |
| 20260510040815 | 47 | 301 | 1.7 | 3.5 | 0.00 | 0.44 | 0.01 | 93 | 1047.3 |
| 20260510040547 | 47 | 301 | 1.7 | 2.6 | 0.00 | 0.44 | 0.01 | 93 | 1047.3 |
| 20260510040306 | 47 | 301 | 1.7 | 2.6 | 0.00 | 0.44 | 0.01 | 93 | 1047.4 |
| 20260510040250 | 47 | 301 | 1.7 | 2.6 | 0.00 | 0.44 | 0.01 | 93 | 1047.4 |
| 20260510035936 | 47 | 302 | 1.7 | 2.6 | 0.00 | 0.44 | 0.01 | 93 | 1047.4 |
| 20260510035833 | 47 | 301 | 1.7 | 2.6 | 0.00 | 0.44 | 0.01 | 93 | 1047.3 |
| 20260510035734 | 47 | 301 | 1.7 | 2.6 | 0.00 | 0.44 | 0.01 | 93 | 1047.3 |
| 20260510035634 | 47 | 301 | 1.7 | 2.6 | 0.00 | 0.44 | 0.01 | 93 | 1047.3 |
| 20260510035535 | 47 | 301 | 1.7 | 2.6 | 0.00 | 0.44 | 0.01 | 93 | 1047.3 |
| 20260510035431 | 47 | 301 | 1.7 | 2.6 | 0.00 | 0.44 | 0.01 | 93 | 1047.3 |
| 20260510035331 | 47 | 301 | 1.7 | 2.6 | 0.00 | 0.44 | 0.01 | 93 | 1047.3 |
| 20260510035232 | 47 | 301 | 1.7 | 2.6 | 0.00 | 0.44 | 0.01 | 93 | 1047.3 |
| 20260510035211 | 47 | 301 | 1.7 | 2.6 | 0.00 | 0.44 | 0.01 | 93 | 1047.3 |
| 20260510035156 | 47 | 301 | 1.7 | 2.6 | 0.00 | 0.44 | 0.01 | 93 | 1047.3 |
| 20260510034831 | 47 | 301 | 1.7 | 2.6 | 0.00 | 0.44 | 0.01 | 93 | 1047.3 |
| 20260510034731 | 47 | 301 | 1.7 | 2.6 | 0.00 | 0.44 | 0.01 | 93 | 1047.3 |
| 20260510034631 | 47 | 301 | 1.7 | 2.6 | 0.00 | 0.44 | 0.01 | 93 | 1047.2 |
| 20260510034534 | 47 | 301 | 1.7 | 2.6 | 0.00 | 0.44 | 0.01 | 93 | 1047.2 |
| 20260510034431 | 47 | 301 | 1.7 | 2.6 | 0.00 | 0.44 | 0.01 | 93 | 1047.2 |
| 20260510034349 | 47 | 301 | 1.7 | 2.6 | 0.00 | 0.44 | 0.01 | 93 | 1047.2 |
| 20260510034343 | 48 | 301 | 1.7 | 2.6 | 0.00 | 0.44 | 0.01 | 93 | 1047.2 |
| 20260510034330 | 48 | 301 | 1.7 | 2.6 | 0.00 | 0.44 | 0.01 | 93 | 1047.2 |
| 20260510034314 | 48 | 301 | 1.7 | 2.6 | 0.00 | 0.44 | 0.01 | 93 | 1047.2 |
| 20260510033730 | 48 | 301 | 1.7 | 3.5 | 0.00 | 0.44 | 0.01 | 93 | 1047.3 |
| 20260510033629 | 48 | 301 | 1.7 | 3.5 | 0.00 | 0.44 | 0.01 | 93 | 1047.3 |
| 20260510033535 | 48 | 301 | 1.7 | 3.5 | 0.00 | 0.44 | 0.01 | 93 | 1047.3 |
| 20260510033505 | 48 | 301 | 1.7 | 3.5 | 0.00 | 0.44 | 0.01 | 93 | 1047.3 |
| 20260510033458 | 48 | 301 | 1.7 | 3.5 | 0.00 | 0.44 | 0.01 | 93 | 1047.3 |
| 20260510033446 | 48 | 301 | 1.7 | 3.5 | 0.00 | 0.44 | 0.01 | 93 | 1047.3 |
| 20260510033422 | 48 | 301 | 1.7 | 3.5 | 0.00 | 0.44 | 0.01 | 93 | 1047.3 |
| 20260510033152 | 48 | 301 | 1.7 | 3.5 | 0.00 | 0.44 | 0.01 | 93 | 1047.3 |
| 20260510032829 | 48 | 301 | 1.7 | 3.5 | 0.00 | 0.44 | 0.01 | 93 | 1047.4 |
| 20260510032728 | 48 | 301 | 1.7 | 3.5 | 0.00 | 0.44 | 0.01 | 93 | 1047.4 |
| 20260510032637 | 48 | 301 | 1.7 | 3.5 | 0.00 | 0.44 | 0.01 | 93 | 1047.3 |
| 20260510032621 | 48 | 301 | 1.7 | 3.5 | 0.00 | 0.44 | 0.01 | 93 | 1047.3 |
| 20260510032604 | 48 | 301 | 1.7 | 3.5 | 0.00 | 0.44 | 0.01 | 93 | 1047.3 |
| 20260510032339 | 48 | 301 | 1.7 | 3.5 | 0.00 | 0.44 | 0.01 | 93 | 1047.3 |
| 20260510032328 | 48 | 301 | 1.7 | 3.5 | 0.00 | 0.44 | 0.01 | 93 | 1047.3 |
| 20260510032318 | 48 | 301 | 1.7 | 3.5 | 0.00 | 0.44 | 0.01 | 93 | 1047.3 |
| 20260510032051 | 48 | 301 | 1.7 | 3.5 | 0.00 | 0.44 | 0.01 | 93 | 1047.3 |
| 20260510031729 | 48 | 302 | 1.7 | 2.6 | 0.00 | 0.44 | 0.01 | 93 | 1047.3 |
| 20260510031629 | 48 | 303 | 1.7 | 2.6 | 0.00 | 0.44 | 0.01 | 93 | 1047.3 |
| 20260510031617 | 48 | 302 | 1.7 | 2.6 | 0.00 | 0.44 | 0.01 | 93 | 1047.3 |
| 20260510031607 | 48 | 303 | 1.7 | 2.6 | 0.00 | 0.44 | 0.01 | 93 | 1047.3 |
| 20260510031555 | 48 | 302 | 1.7 | 2.6 | 0.00 | 0.44 | 0.01 | 93 | 1047.3 |
| 20260510031253 | 48 | 302 | 1.7 | 2.6 | 0.00 | 0.44 | 0.01 | 93 | 1047.3 |
| 20260510031247 | 48 | 302 | 1.7 | 2.6 | 0.00 | 0.44 | 0.01 | 93 | 1047.3 |
| 20260510031232 | 48 | 302 | 1.7 | 2.6 | 0.00 | 0.44 | 0.01 | 93 | 1047.3 |
| 20260510030928 | 48 | 302 | 1.7 | 2.6 | 0.00 | 0.44 | 0.01 | 93 | 1047.3 |
| 20260510030829 | 48 | 302 | 1.7 | 2.6 | 0.00 | 0.44 | 0.01 | 93 | 1047.3 |
| 20260510030729 | 48 | 303 | 1.7 | 2.6 | 0.00 | 0.44 | 0.01 | 93 | 1047.3 |
| 20260510030629 | 48 | 302 | 1.7 | 2.6 | 0.00 | 0.44 | 0.01 | 93 | 1047.3 |
| 20260510030608 | 48 | 302 | 1.7 | 2.6 | 0.00 | 0.44 | 0.01 | 93 | 1047.3 |
| 20260510030555 | 48 | 302 | 1.7 | 2.6 | 0.00 | 0.44 | 0.01 | 93 | 1047.3 |
| 20260510030315 | 48 | 302 | 1.7 | 2.6 | 0.00 | 0.44 | 0.01 | 93 | 1047.3 |
| 20260510030018 | 48 | 302 | 1.7 | 2.6 | 0.00 | 0.44 | 0.01 | 93 | 1047.4 |
| 20260510025927 | 48 | 302 | 1.7 | 2.6 | 0.00 | 0.44 | 0.01 | 93 | 1047.3 |
| 20260510025827 | 48 | 302 | 1.7 | 2.6 | 0.00 | 0.44 | 0.01 | 93 | 1047.4 |
| 20260510025726 | 48 | 303 | 1.7 | 2.6 | 0.00 | 0.44 | 0.01 | 93 | 1047.4 |
| 20260510025713 | 48 | 303 | 1.7 | 2.6 | 0.00 | 0.44 | 0.01 | 93 | 1047.4 |
| 20260510025706 | 48 | 302 | 1.7 | 2.6 | 0.00 | 0.44 | 0.01 | 93 | 1047.4 |
| 20260510025658 | 48 | 303 | 1.7 | 2.6 | 0.00 | 0.44 | 0.01 | 93 | 1047.4 |
| 20260510025323 | 48 | 303 | 1.7 | 2.6 | 0.00 | 0.44 | 0.01 | 93 | 1047.4 |
| 20260510025250 | 48 | 302 | 1.7 | 2.6 | 0.00 | 0.44 | 0.01 | 93 | 1047.4 |
| 20260510025243 | 48 | 303 | 1.7 | 2.6 | 0.00 | 0.44 | 0.01 | 93 | 1047.4 |
| 20260510025229 | 48 | 303 | 1.7 | 2.6 | 0.00 | 0.44 | 0.01 | 93 | 1047.5 |
| 20260510024916 | 48 | 302 | 1.7 | 2.6 | 0.00 | 0.44 | 0.01 | 93 | 1047.4 |
| 20260510024813 | 48 | 303 | 1.7 | 2.6 | 0.00 | 0.44 | 0.01 | 93 | 1047.4 |
| 20260510024713 | 48 | 302 | 1.7 | 2.6 | 0.00 | 0.44 | 0.01 | 93 | 1047.5 |
| 20260510024611 | 48 | 302 | 1.7 | 2.6 | 0.00 | 0.44 | 0.01 | 93 | 1047.5 |
| 20260510024515 | 48 | 302 | 1.7 | 2.6 | 0.00 | 0.44 | 0.01 | 93 | 1047.4 |
| 20260510024409 | 48 | 302 | 1.7 | 2.6 | 0.00 | 0.44 | 0.01 | 93 | 1047.4 |
| 20260510024303 | 48 | 303 | 1.7 | 2.6 | 0.00 | 0.44 | 0.01 | 93 | 1047.4 |
| 20260510024249 | 48 | 302 | 1.7 | 2.6 | 0.00 | 0.44 | 0.01 | 93 | 1047.4 |
| 20260510024238 | 48 | 303 | 1.7 | 2.6 | 0.00 | 0.44 | 0.01 | 93 | 1047.4 |
| 20260510024003 | 48 | 302 | 1.7 | 2.6 | 0.00 | 0.44 | 0.01 | 93 | 1047.4 |
| 20260510023904 | 48 | 302 | 1.7 | 2.6 | 0.00 | 0.44 | 0.01 | 93 | 1047.4 |
| 20260510023803 | 48 | 303 | 1.7 | 2.6 | 0.00 | 0.44 | 0.01 | 93 | 1047.4 |
| 20260510023702 | 48 | 302 | 1.7 | 2.6 | 0.00 | 0.44 | 0.01 | 93 | 1047.4 |
| 20260510023603 | 48 | 303 | 1.7 | 2.6 | 0.00 | 0.44 | 0.01 | 93 | 1047.4 |
| 20260510023514 | 48 | 302 | 1.7 | 2.6 | 0.00 | 0.44 | 0.01 | 93 | 1047.4 |
| 20260510023503 | 48 | 359 | 1.7 | 2.6 | 0.00 | 0.44 | 0.01 | 93 | 1047.4 |
| 20260510023403 | 48 | 303 | 1.7 | 2.6 | 0.00 | 0.44 | 0.01 | 93 | 1047.4 |
| 20260510023309 | 48 | 303 | 1.7 | 2.6 | 0.00 | 0.44 | 0.01 | 93 | 1047.5 |
| 20260510023301 | 48 | 303 | 1.7 | 2.6 | 0.00 | 0.44 | 0.01 | 93 | 1047.5 |
| 20260510023250 | 48 | 302 | 1.7 | 2.6 | 0.00 | 0.44 | 0.01 | 93 | 1047.5 |
| 20260510023001 | 48 | 303 | 1.7 | 2.6 | 0.00 | 0.44 | 0.01 | 93 | 1047.4 |
| 20260510022903 | 48 | 302 | 1.7 | 2.6 | 0.00 | 0.44 | 0.01 | 93 | 1047.5 |
| 20260510022801 | 48 | 302 | 1.7 | 2.6 | 0.00 | 0.44 | 0.01 | 93 | 1047.5 |
| 20260510022701 | 48 | 302 | 1.7 | 2.6 | 0.00 | 0.44 | 0.01 | 93 | 1047.5 |
| 20260510022600 | 48 | 303 | 1.7 | 2.6 | 0.00 | 0.44 | 0.01 | 93 | 1047.5 |
| 20260510022513 | 48 | 303 | 1.7 | 2.6 | 0.00 | 0.44 | 0.01 | 93 | 1047.5 |
| 20260510022500 | 48 | 302 | 1.7 | 2.6 | 0.00 | 0.44 | 0.01 | 93 | 1047.5 |
| 20260510022402 | 48 | 302 | 1.7 | 3.5 | 0.00 | 0.44 | 0.01 | 93 | 1047.5 |
| 20260510022301 | 48 | 303 | 1.7 | 3.5 | 0.00 | 0.44 | 0.01 | 93 | 1047.5 |
| 20260510022243 | 48 | 302 | 1.7 | 3.5 | 0.00 | 0.44 | 0.01 | 93 | 1047.5 |
| 20260510022232 | 48 | 303 | 1.7 | 3.5 | 0.00 | 0.44 | 0.01 | 93 | 1047.6 |
| 20260510022000 | 48 | 303 | 1.7 | 3.5 | 0.00 | 0.44 | 0.01 | 93 | 1047.6 |
| 20260510021933 | 48 | 302 | 1.7 | 3.5 | 0.00 | 0.44 | 0.01 | 93 | 1047.6 |
| 20260510021924 | 48 | 303 | 1.7 | 3.5 | 0.00 | 0.44 | 0.01 | 93 | 1047.6 |
| 20260510021601 | 48 | 302 | 1.7 | 3.5 | 0.00 | 0.44 | 0.01 | 93 | 1047.7 |
| 20260510021512 | 48 | 303 | 1.7 | 3.5 | 0.00 | 0.44 | 0.01 | 93 | 1047.6 |
| 20260510021501 | 48 | 302 | 1.7 | 3.5 | 0.00 | 0.44 | 0.01 | 93 | 1047.6 |
| 20260510021359 | 48 | 303 | 1.7 | 3.5 | 0.00 | 0.44 | 0.01 | 93 | 1047.6 |
| 20260510021323 | 49 | 303 | 1.7 | 2.6 | 0.00 | 0.44 | 0.01 | 93 | 1047.6 |
| 20260510021315 | 49 | 302 | 1.7 | 2.6 | 0.00 | 0.44 | 0.01 | 93 | 1047.6 |
| 20260510021015 | 49 | 303 | 1.7 | 2.6 | 0.00 | 0.44 | 0.01 | 93 | 1047.6 |
| 20260510020954 | 49 | 303 | 1.7 | 2.6 | 0.00 | 0.44 | 0.01 | 93 | 1047.6 |
| 20260510020854 | 49 | 302 | 1.7 | 3.5 | 0.00 | 0.44 | 0.01 | 93 | 1047.7 |
| 20260510020755 | 49 | 302 | 1.7 | 3.5 | 0.00 | 0.44 | 0.01 | 93 | 1047.6 |
| 20260510020655 | 49 | 359 | 1.7 | 3.5 | 0.00 | 0.44 | 0.01 | 93 | 1047.7 |
| 20260510020529 | 49 | 302 | 1.7 | 3.5 | 0.00 | 0.44 | 0.01 | 93 | 1047.7 |
| 20260510020522 | 49 | 302 | 1.7 | 3.5 | 0.00 | 0.44 | 0.01 | 93 | 1047.7 |
| 20260510020512 | 49 | 303 | 1.7 | 3.5 | 0.00 | 0.44 | 0.01 | 93 | 1047.7 |
| 20260510020200 | 49 | 303 | 1.7 | 3.5 | 0.00 | 0.44 | 0.01 | 93 | 1047.6 |
| 20260510020152 | 49 | 302 | 1.7 | 3.5 | 0.00 | 0.44 | 0.01 | 93 | 1047.6 |
| 20260510020140 | 49 | 302 | 2.6 | 3.5 | 0.00 | 0.44 | 0.01 | 93 | 1047.6 |
| 20260510020129 | 49 | 302 | 2.6 | 3.5 | 0.00 | 0.44 | 0.01 | 93 | 1047.6 |
| 20260510015753 | 49 | 302 | 2.6 | 3.5 | 0.00 | 0.44 | 0.01 | 93 | 1047.6 |
| 20260510015653 | 49 | 302 | 2.6 | 3.5 | 0.00 | 0.44 | 0.01 | 93 | 1047.6 |
| 20260510015552 | 49 | 302 | 2.6 | 3.5 | 0.00 | 0.44 | 0.01 | 93 | 1047.6 |
| 20260510015512 | 49 | 302 | 2.6 | 3.5 | 0.00 | 0.44 | 0.01 | 93 | 1047.6 |
| 20260510015500 | 49 | 302 | 2.6 | 3.5 | 0.00 | 0.44 | 0.01 | 93 | 1047.6 |
| 20260510015450 | 49 | 303 | 2.6 | 3.5 | 0.00 | 0.44 | 0.01 | 93 | 1047.6 |
| 20260510015443 | 49 | 303 | 2.6 | 3.5 | 0.00 | 0.44 | 0.01 | 93 | 1047.6 |
| 20260510015205 | 49 | 303 | 2.6 | 3.5 | 0.00 | 0.44 | 0.01 | 93 | 1047.6 |
| 20260510015156 | 49 | 303 | 2.6 | 3.5 | 0.00 | 0.44 | 0.01 | 93 | 1047.5 |
| 20260510015147 | 49 | 302 | 2.6 | 3.5 | 0.00 | 0.44 | 0.01 | 93 | 1047.5 |
| 20260510015125 | 49 | 302 | 2.6 | 3.5 | 0.00 | 0.44 | 0.01 | 93 | 1047.5 |
| 20260510015117 | 49 | 303 | 2.6 | 3.5 | 0.00 | 0.44 | 0.01 | 93 | 1047.6 |
| 20260510014848 | 49 | 303 | 2.6 | 3.5 | 0.00 | 0.44 | 0.01 | 93 | 1047.6 |
| 20260510014623 | 49 | 302 | 1.7 | 3.5 | 0.00 | 0.44 | 0.01 | 93 | 1047.5 |
| 20260510014613 | 49 | 302 | 1.7 | 3.5 | 0.00 | 0.44 | 0.01 | 93 | 1047.6 |
| 20260510014605 | 49 | 302 | 1.7 | 3.5 | 0.00 | 0.44 | 0.01 | 93 | 1047.6 |
| 20260510014337 | 49 | 302 | 1.7 | 2.6 | 0.00 | 0.44 | 0.01 | 93 | 1047.6 |
| 20260510014326 | 49 | 303 | 1.7 | 2.6 | 0.00 | 0.44 | 0.01 | 93 | 1047.7 |
| 20260510013747 | 49 | 302 | 1.7 | 3.5 | 0.00 | 0.44 | 0.01 | 93 | 1047.6 |
| 20260510013647 | 49 | 303 | 1.7 | 3.5 | 0.00 | 0.44 | 0.01 | 93 | 1047.6 |
| 20260510013546 | 49 | 303 | 1.7 | 3.5 | 0.01 | 0.44 | 0.01 | 93 | 1047.6 |
| 20260510013512 | 49 | 302 | 1.7 | 3.5 | 0.01 | 0.44 | 0.01 | 93 | 1047.6 |
| 20260510013447 | 49 | 302 | 1.7 | 3.5 | 0.01 | 0.44 | 0.01 | 93 | 1047.6 |
| 20260510013346 | 49 | 303 | 1.7 | 3.5 | 0.01 | 0.44 | 0.01 | 93 | 1047.6 |
| 20260510013246 | 49 | 303 | 1.7 | 3.5 | 0.01 | 0.44 | 0.01 | 93 | 1047.6 |
| 20260510013147 | 49 | 302 | 1.7 | 3.5 | 0.01 | 0.44 | 0.01 | 93 | 1047.6 |
| 20260510013019 | 49 | 302 | 1.7 | 3.5 | 0.01 | 0.44 | 0.01 | 93 | 1047.6 |
| 20260510013012 | 49 | 302 | 1.7 | 3.5 | 0.01 | 0.44 | 0.01 | 93 | 1047.7 |
| 20260510013002 | 49 | 303 | 1.7 | 3.5 | 0.01 | 0.44 | 0.01 | 93 | 1047.7 |
| 20260510012642 | 49 | 304 | 1.7 | 3.5 | 0.01 | 0.44 | 0.01 | 93 | 1047.6 |
| 20260510012543 | 49 | 305 | 1.7 | 2.6 | 0.01 | 0.44 | 0.01 | 93 | 1047.6 |
| 20260510012509 | 49 | 304 | 1.7 | 3.5 | 0.01 | 0.44 | 0.01 | 93 | 1047.6 |
| 20260510012443 | 49 | 304 | 1.7 | 3.5 | 0.01 | 0.44 | 0.01 | 93 | 1047.6 |
| 20260510012342 | 49 | 304 | 1.7 | 3.5 | 0.01 | 0.44 | 0.01 | 93 | 1047.5 |
| 20260510012243 | 49 | 304 | 1.7 | 3.5 | 0.01 | 0.44 | 0.01 | 93 | 1047.5 |
| 20260510012143 | 49 | 304 | 1.7 | 3.5 | 0.01 | 0.44 | 0.01 | 93 | 1047.5 |
| 20260510012044 | 49 | 304 | 1.7 | 3.5 | 0.01 | 0.44 | 0.01 | 93 | 1047.5 |
| 20260510012010 | 49 | 304 | 1.7 | 3.5 | 0.01 | 0.44 | 0.01 | 93 | 1047.4 |
| 20260510011943 | 49 | 304 | 1.7 | 3.5 | 0.01 | 0.44 | 0.01 | 93 | 1047.4 |
| 20260510011843 | 49 | 304 | 1.7 | 3.5 | 0.01 | 0.44 | 0.01 | 93 | 1047.5 |
| 20260510011742 | 49 | 304 | 1.7 | 3.5 | 0.01 | 0.44 | 0.01 | 93 | 1047.4 |
| 20260510011642 | 49 | 304 | 1.7 | 3.5 | 0.01 | 0.44 | 0.01 | 93 | 1047.5 |
| 20260510011543 | 49 | 304 | 1.7 | 3.5 | 0.01 | 0.44 | 0.01 | 93 | 1047.5 |
| 20260510011509 | 49 | 304 | 1.7 | 2.6 | 0.01 | 0.44 | 0.01 | 93 | 1047.5 |
| 20260510011443 | 49 | 304 | 1.7 | 2.6 | 0.01 | 0.44 | 0.01 | 93 | 1047.5 |
| 20260510011342 | 49 | 304 | 1.7 | 2.6 | 0.01 | 0.44 | 0.01 | 93 | 1047.5 |
| 20260510011310 | 49 | 304 | 1.7 | 2.6 | 0.01 | 0.44 | 0.01 | 93 | 1047.4 |
| 20260510011300 | 50 | 304 | 1.7 | 2.6 | 0.01 | 0.44 | 0.01 | 93 | 1047.4 |
| 20260510011011 | 50 | 304 | 1.7 | 2.6 | 0.01 | 0.44 | 0.01 | 93 | 1047.4 |
| 20260510010938 | 50 | 304 | 1.7 | 2.6 | 0.01 | 0.44 | 0.01 | 93 | 1047.4 |
| 20260510010838 | 50 | 304 | 1.7 | 3.5 | 0.01 | 0.44 | 0.01 | 93 | 1047.4 |
| 20260510010803 | 50 | 305 | 1.7 | 3.5 | 0.01 | 0.44 | 0.01 | 93 | 1047.4 |
| 20260510010753 | 50 | 304 | 1.7 | 3.5 | 0.01 | 0.44 | 0.01 | 93 | 1047.4 |
| 20260510010723 | 50 | 304 | 1.7 | 3.5 | 0.01 | 0.44 | 0.01 | 93 | 1047.3 |
| 20260510010459 | 50 | 304 | 1.7 | 3.5 | 0.01 | 0.44 | 0.01 | 93 | 1047.4 |
| 20260510010137 | 50 | 304 | 1.7 | 3.5 | 0.01 | 0.44 | 0.01 | 93 | 1047.4 |
| 20260510010011 | 50 | 304 | 1.7 | 3.5 | 0.01 | 0.44 | 0.01 | 93 | 1047.4 |
| 20260510005952 | 50 | 304 | 2.6 | 3.5 | 0.01 | 0.44 | 0.01 | 93 | 1047.4 |
| 20260510005944 | 50 | 305 | 2.6 | 3.5 | 0.01 | 0.44 | 0.01 | 93 | 1047.4 |
| 20260510005937 | 50 | 304 | 2.6 | 3.5 | 0.01 | 0.44 | 0.01 | 93 | 1047.4 |
| 20260510005650 | 50 | 305 | 2.6 | 3.5 | 0.01 | 0.44 | 0.01 | 93 | 1047.3 |
| 20260510005641 | 50 | 305 | 2.6 | 3.5 | 0.01 | 0.44 | 0.01 | 93 | 1047.4 |
| 20260510005633 | 50 | 305 | 2.6 | 4.3 | 0.01 | 0.44 | 0.01 | 93 | 1047.4 |
| 20260510005625 | 50 | 304 | 2.6 | 4.3 | 0.01 | 0.44 | 0.01 | 93 | 1047.4 |
| 20260510005352 | 50 | 304 | 1.7 | 4.3 | 0.01 | 0.44 | 0.01 | 93 | 1047.4 |
| 20260510005118 | 50 | 305 | 1.7 | 4.3 | 0.01 | 0.44 | 0.01 | 93 | 1047.4 |
| 20260510004849 | 50 | 305 | 1.7 | 4.3 | 0.01 | 0.44 | 0.01 | 93 | 1047.4 |
| 20260510004836 | 50 | 305 | 1.7 | 4.3 | 0.01 | 0.44 | 0.01 | 93 | 1047.5 |
| 20260510004828 | 50 | 306 | 1.7 | 4.3 | 0.01 | 0.44 | 0.01 | 93 | 1047.5 |
| 20260510004557 | 50 | 305 | 1.7 | 4.3 | 0.01 | 0.44 | 0.01 | 93 | 1047.5 |
| 20260510004232 | 50 | 305 | 1.7 | 3.5 | 0.01 | 0.44 | 0.01 | 93 | 1047.6 |
| 20260510004132 | 50 | 306 | 1.7 | 3.5 | 0.01 | 0.44 | 0.01 | 93 | 1047.6 |
| 20260510004033 | 50 | 306 | 1.7 | 3.5 | 0.01 | 0.44 | 0.01 | 93 | 1047.6 |
| 20260510004010 | 50 | 305 | 1.7 | 3.5 | 0.01 | 0.44 | 0.01 | 93 | 1047.6 |
| 20260510003932 | 50 | 305 | 1.7 | 3.5 | 0.01 | 0.44 | 0.01 | 93 | 1047.6 |
| 20260510003833 | 50 | 306 | 1.7 | 3.5 | 0.01 | 0.44 | 0.01 | 93 | 1047.7 |
| 20260510003732 | 50 | 305 | 1.7 | 3.5 | 0.01 | 0.44 | 0.01 | 93 | 1047.7 |
| 20260510003710 | 50 | 306 | 1.7 | 3.5 | 0.01 | 0.44 | 0.00 | 93 | 1047.7 |
| 20260510003652 | 50 | 305 | 2.6 | 3.5 | 0.00 | 0.43 | 0.00 | 93 | 1047.7 |
| 20260510003643 | 50 | 305 | 2.6 | 3.5 | 0.00 | 0.43 | 0.00 | 93 | 1047.7 |
| 20260510003634 | 50 | 305 | 2.6 | 3.5 | 0.00 | 0.43 | 0.00 | 93 | 1047.8 |
| 20260510003626 | 50 | 306 | 2.6 | 3.5 | 0.00 | 0.43 | 0.00 | 93 | 1047.8 |
| 20260510003136 | 50 | 306 | 2.6 | 3.5 | 0.00 | 0.43 | 0.00 | 93 | 1047.9 |
| 20260510003130 | 50 | 306 | 2.6 | 3.5 | 0.00 | 0.43 | 0.00 | 93 | 1047.8 |
| 20260510003107 | 50 | 306 | 2.6 | 3.5 | 0.00 | 0.43 | 0.00 | 93 | 1047.8 |
| 20260510003100 | 50 | 307 | 2.6 | 3.5 | 0.00 | 0.43 | 0.00 | 93 | 1047.8 |
| 20260510003048 | 50 | 306 | 2.6 | 3.5 | 0.00 | 0.43 | 0.00 | 93 | 1047.7 |
| 20260510003027 | 50 | 306 | 1.7 | 3.5 | 0.00 | 0.43 | 0.00 | 93 | 1047.8 |
| 20260510002533 | 50 | 306 | 1.7 | 3.5 | 0.00 | 0.43 | 0.00 | 93 | 1047.7 |
| 20260510002308 | 50 | 307 | 1.7 | 3.5 | 0.00 | 0.43 | 0.00 | 93 | 1047.8 |
| 20260510002014 | 50 | 307 | 1.7 | 3.5 | 0.00 | 0.43 | 0.00 | 93 | 1047.8 |
| 20260510002006 | 50 | 307 | 1.7 | 2.6 | 0.00 | 0.43 | 0.00 | 93 | 1047.8 |
| 20260510001958 | 50 | 307 | 1.7 | 2.6 | 0.00 | 0.43 | 0.00 | 93 | 1047.8 |
| 20260510001634 | 50 | 307 | 1.7 | 1.7 | 0.00 | 0.43 | 0.00 | 93 | 1047.8 |
| 20260510001507 | 50 | 307 | 0.9 | 1.7 | 0.00 | 0.43 | 0.00 | 93 | 1047.8 |
| 20260510001430 | 50 | 307 | 0.9 | 1.7 | 0.00 | 0.43 | 0.00 | 93 | 1047.8 |
| 20260510001329 | 50 | 306 | 0.9 | 1.7 | 0.00 | 0.43 | 0.00 | 93 | 1047.8 |
| 20260510001229 | 50 | 307 | 0.9 | 1.7 | 0.00 | 0.43 | 0.00 | 93 | 1047.9 |
| 20260510001128 | 50 | 307 | 0.9 | 1.7 | 0.00 | 0.43 | 0.00 | 93 | 1047.9 |
| 20260510001059 | 50 | 307 | 0.9 | 1.7 | 0.00 | 0.43 | 0.00 | 93 | 1047.9 |
| 20260510001052 | 50 | 307 | 0.9 | 1.7 | 0.00 | 0.43 | 0.00 | 93 | 1047.9 |
| 20260510000728 | 50 | 307 | 0.9 | 1.7 | 0.00 | 0.43 | 0.00 | 93 | 1047.9 |
| 20260510000629 | 50 | 307 | 0.0 | 1.7 | 0.00 | 0.43 | 0.00 | 93 | 1047.9 |
| 20260510000528 | 50 | 308 | 0.0 | 1.7 | 0.00 | 0.43 | 0.00 | 93 | 1047.9 |
| 20260510000507 | 50 | 307 | 0.0 | 1.7 | 0.00 | 0.43 | 0.00 | 93 | 1047.9 |
| 20260510000429 | 50 | 307 | 0.0 | 1.7 | 0.00 | 0.43 | 0.00 | 93 | 1047.9 |
| 20260510000328 | 50 | 307 | 0.9 | 1.7 | 0.00 | 0.43 | 0.00 | 93 | 1047.9 |
| 20260510000229 | 50 | 307 | 0.9 | 1.7 | 0.00 | 0.43 | 0.00 | 93 | 1047.9 |
| 20260510000129 | 50 | 307 | 0.9 | 1.7 | 0.00 | 0.43 | 0.00 | 93 | 1047.9 |
| 20260510000028 | 50 | 307 | 0.9 | 2.6 | 0.00 | 0.43 | 0.00 | 93 | 1047.9 |
| 20260510000009 | 50 | 359 | 0.9 | 2.6 | 0.00 | 0.43 | 0.00 | 93 | 1047.9 |
| 20260509235928 | 50 | 307 | 0.9 | 2.6 | 0.00 | 0.43 | 0.00 | 93 | 1048.0 |
| 20260509235829 | 50 | 307 | 0.9 | 2.6 | 0.00 | 0.43 | 0.00 | 93 | 1048.0 |
| 20260509235728 | 50 | 307 | 0.9 | 2.6 | 0.00 | 0.43 | 0.00 | 93 | 1048.0 |
| 20260509235629 | 50 | 307 | 1.7 | 2.6 | 0.00 | 0.43 | 0.00 | 93 | 1048.0 |
| 20260509235529 | 50 | 359 | 1.7 | 2.6 | 0.00 | 0.43 | 0.00 | 93 | 1048.1 |
| 20260509235507 | 51 | 307 | 1.7 | 2.6 | 0.00 | 0.43 | 0.00 | 93 | 1048.1 |
| 20260509235429 | 51 | 307 | 1.7 | 2.6 | 0.00 | 0.43 | 0.00 | 93 | 1048.1 |
| 20260509235328 | 51 | 307 | 1.7 | 2.6 | 0.00 | 0.43 | 0.00 | 93 | 1048.1 |
| 20260509235228 | 51 | 307 | 1.7 | 2.6 | 0.00 | 0.43 | 0.00 | 93 | 1048.1 |
| 20260509235129 | 51 | 307 | 1.7 | 2.6 | 0.00 | 0.43 | 0.00 | 93 | 1048.1 |
| 20260509235059 | 51 | 307 | 1.7 | 2.6 | 0.00 | 0.43 | 0.00 | 93 | 1048.1 |
| 20260509235051 | 51 | 306 | 1.7 | 2.6 | 0.00 | 0.43 | 0.00 | 93 | 1048.1 |
| 20260509234729 | 51 | 307 | 1.7 | 2.6 | 0.00 | 0.43 | 0.00 | 93 | 1048.2 |
| 20260509234715 | 51 | 307 | 1.7 | 2.6 | 0.00 | 0.43 | 0.00 | 93 | 1048.2 |
| 20260509234653 | 51 | 307 | 1.7 | 2.6 | 0.00 | 0.43 | 0.00 | 93 | 1048.2 |
| 20260509234328 | 51 | 307 | 1.7 | 2.6 | 0.00 | 0.43 | 0.00 | 93 | 1048.2 |
| 20260509234245 | 51 | 306 | 1.7 | 2.6 | 0.00 | 0.43 | 0.00 | 93 | 1048.2 |
| 20260509234237 | 51 | 307 | 1.7 | 2.6 | 0.00 | 0.43 | 0.00 | 93 | 1048.2 |
| 20260509234226 | 51 | 307 | 1.7 | 2.6 | 0.00 | 0.43 | 0.00 | 93 | 1048.2 |
| 20260509233951 | 51 | 306 | 1.7 | 2.6 | 0.00 | 0.43 | 0.00 | 93 | 1048.2 |
| 20260509233943 | 51 | 307 | 1.7 | 2.6 | 0.00 | 0.43 | 0.00 | 93 | 1048.3 |
| 20260509233928 | 51 | 307 | 1.7 | 2.6 | 0.00 | 0.43 | 0.00 | 93 | 1048.4 |
| 20260509233649 | 51 | 307 | 1.7 | 4.3 | 0.00 | 0.43 | 0.00 | 93 | 1048.4 |
| 20260509233352 | 51 | 307 | 1.7 | 4.3 | 0.00 | 0.43 | 0.00 | 93 | 1048.4 |
| 20260509233346 | 51 | 306 | 1.7 | 4.3 | 0.00 | 0.43 | 0.00 | 93 | 1048.4 |
| 20260509233006 | 51 | 307 | 2.6 | 4.3 | 0.00 | 0.43 | 0.00 | 93 | 1048.4 |
| 20260509232916 | 51 | 306 | 2.6 | 4.3 | 0.00 | 0.43 | 0.00 | 93 | 1048.4 |
| 20260509232817 | 51 | 307 | 2.6 | 4.3 | 0.00 | 0.43 | 0.00 | 93 | 1048.4 |
| 20260509232717 | 51 | 359 | 2.6 | 4.3 | 0.00 | 0.43 | 0.00 | 93 | 1048.4 |
| 20260509232616 | 51 | 308 | 1.7 | 4.3 | 0.00 | 0.43 | 0.00 | 93 | 1048.4 |
| 20260509232513 | 51 | 308 | 1.7 | 4.3 | 0.00 | 0.43 | 0.00 | 93 | 1048.4 |
| 20260509232412 | 51 | 308 | 1.7 | 4.3 | 0.00 | 0.43 | 0.00 | 93 | 1048.4 |
| 20260509232313 | 51 | 308 | 1.7 | 4.3 | 0.00 | 0.43 | 0.00 | 93 | 1048.4 |
| 20260509232212 | 51 | 308 | 1.7 | 4.3 | 0.00 | 0.43 | 0.00 | 93 | 1048.4 |
| 20260509232112 | 51 | 310 | 1.7 | 3.5 | 0.00 | 0.43 | 0.00 | 93 | 1048.4 |
| 20260509232006 | 51 | 310 | 1.7 | 2.6 | 0.00 | 0.43 | 0.00 | 93 | 1048.4 |
| 20260509231908 | 51 | 359 | 1.7 | 2.6 | 0.00 | 0.43 | 0.00 | 93 | 1048.4 |
| 20260509231808 | 51 | 310 | 1.7 | 2.6 | 0.00 | 0.43 | 0.00 | 93 | 1048.3 |
| 20260509231708 | 51 | 310 | 1.7 | 2.6 | 0.00 | 0.43 | 0.00 | 93 | 1048.3 |
| 20260509231609 | 51 | 310 | 1.7 | 2.6 | 0.00 | 0.43 | 0.00 | 93 | 1048.3 |
| 20260509231515 | 51 | 310 | 1.7 | 2.6 | 0.00 | 0.43 | 0.00 | 93 | 1048.3 |
| 20260509231503 | 51 | 310 | 1.7 | 2.6 | 0.00 | 0.43 | 0.00 | 93 | 1048.3 |
| 20260509231408 | 51 | 310 | 1.7 | 2.6 | 0.00 | 0.43 | 0.00 | 93 | 1048.3 |
| 20260509231306 | 51 | 310 | 1.7 | 3.5 | 0.00 | 0.43 | 0.00 | 93 | 1048.3 |
| 20260509231209 | 51 | 310 | 1.7 | 3.5 | 0.00 | 0.43 | 0.00 | 93 | 1048.3 |
| 20260509231145 | 51 | 310 | 1.7 | 3.5 | 0.00 | 0.43 | 0.00 | 93 | 1048.3 |
| 20260509231140 | 51 | 310 | 1.7 | 3.5 | 0.00 | 0.43 | 0.00 | 93 | 1048.3 |
| 20260509231130 | 51 | 310 | 1.7 | 3.5 | 0.00 | 0.43 | 0.00 | 93 | 1048.3 |
| 20260509230804 | 52 | 310 | 1.7 | 3.5 | 0.00 | 0.43 | 0.00 | 93 | 1048.4 |
| 20260509230753 | 52 | 310 | 1.7 | 3.5 | 0.00 | 0.43 | 0.00 | 93 | 1048.4 |
| 20260509230747 | 52 | 359 | 1.7 | 3.5 | 0.00 | 0.43 | 0.00 | 93 | 1048.4 |
| 20260509230510 | 52 | 310 | 1.7 | 3.5 | 0.00 | 0.43 | 0.00 | 93 | 1048.4 |
| 20260509230417 | 52 | 310 | 1.7 | 3.5 | 0.00 | 0.43 | 0.00 | 93 | 1048.4 |
| 20260509230304 | 52 | 310 | 1.7 | 3.5 | 0.00 | 0.43 | 0.00 | 93 | 1048.5 |
| 20260509230202 | 52 | 310 | 1.7 | 3.5 | 0.00 | 0.43 | 0.00 | 93 | 1048.4 |
| 20260509230006 | 52 | 310 | 1.7 | 3.5 | 0.00 | 0.43 | 0.00 | 93 | 1048.4 |
| 20260509225900 | 52 | 310 | 1.7 | 3.5 | 0.00 | 0.43 | 0.00 | 93 | 1048.4 |
| 20260509225758 | 52 | 310 | 1.7 | 3.5 | 0.00 | 0.43 | 0.00 | 93 | 1048.4 |
| 20260509225659 | 52 | 310 | 1.7 | 3.5 | 0.00 | 0.43 | 0.00 | 93 | 1048.4 |
| 20260509225557 | 52 | 310 | 1.7 | 3.5 | 0.00 | 0.43 | 0.00 | 93 | 1048.4 |
| 20260509225454 | 52 | 310 | 1.7 | 3.5 | 0.00 | 0.43 | 0.00 | 93 | 1048.4 |
| 20260509225355 | 52 | 310 | 1.7 | 3.5 | 0.00 | 0.43 | 0.00 | 93 | 1048.4 |
| 20260509225252 | 52 | 310 | 1.7 | 2.6 | 0.00 | 0.43 | 0.00 | 93 | 1048.4 |
| 20260509225152 | 52 | 310 | 1.7 | 2.6 | 0.00 | 0.43 | 0.00 | 93 | 1048.4 |
| 20260509225051 | 52 | 310 | 1.7 | 2.6 | 0.00 | 0.43 | 0.00 | 93 | 1048.4 |
| 20260509224949 | 52 | 310 | 1.7 | 3.5 | 0.00 | 0.43 | 0.00 | 93 | 1048.4 |
| 20260509224936 | 52 | 310 | 1.7 | 3.5 | 0.00 | 0.43 | 0.00 | 93 | 1048.4 |
| 20260509224928 | 52 | 310 | 1.7 | 3.5 | 0.00 | 0.43 | 0.00 | 93 | 1048.4 |
| 20260509224916 | 52 | 310 | 1.7 | 3.5 | 0.00 | 0.43 | 0.00 | 93 | 1048.5 |
| 20260509224907 | 52 | 310 | 1.7 | 3.5 | 0.00 | 0.43 | 0.00 | 93 | 1048.5 |
| 20260509224632 | 52 | 310 | 1.7 | 3.5 | 0.00 | 0.43 | 0.00 | 93 | 1048.5 |
| 20260509224622 | 52 | 310 | 1.7 | 3.5 | 0.00 | 0.43 | 0.00 | 93 | 1048.5 |
| 20260509224041 | 52 | 310 | 1.7 | 3.5 | 0.00 | 0.43 | 0.00 | 93 | 1048.5 |
| 20260509223941 | 52 | 310 | 1.7 | 3.5 | 0.00 | 0.43 | 0.00 | 93 | 1048.5 |
| 20260509223841 | 52 | 310 | 1.7 | 3.5 | 0.00 | 0.43 | 0.00 | 93 | 1048.5 |
| 20260509223808 | 52 | 310 | 1.7 | 3.5 | 0.00 | 0.43 | 0.00 | 93 | 1048.5 |
| 20260509223801 | 52 | 310 | 1.7 | 3.5 | 0.00 | 0.43 | 0.00 | 93 | 1048.5 |
| 20260509223459 | 52 | 310 | 1.7 | 3.5 | 0.00 | 0.43 | 0.00 | 93 | 1048.5 |
| 20260509223441 | 52 | 310 | 1.7 | 3.5 | 0.00 | 0.43 | 0.00 | 93 | 1048.4 |
| 20260509223340 | 52 | 310 | 1.7 | 3.5 | 0.00 | 0.43 | 0.00 | 93 | 1048.5 |
| 20260509223241 | 52 | 310 | 1.7 | 3.5 | 0.00 | 0.43 | 0.00 | 93 | 1048.5 |
| 20260509223143 | 52 | 310 | 1.7 | 3.5 | 0.00 | 0.43 | 0.00 | 93 | 1048.5 |
| 20260509223111 | 52 | 310 | 1.7 | 3.5 | 0.00 | 0.43 | 0.00 | 93 | 1048.5 |
| 20260509223053 | 52 | 310 | 1.7 | 3.5 | 0.00 | 0.43 | 0.00 | 93 | 1048.5 |
| 20260509222748 | 52 | 310 | 1.7 | 3.5 | 0.00 | 0.43 | 0.00 | 92 | 1048.5 |
| 20260509222740 | 52 | 310 | 1.7 | 3.5 | 0.00 | 0.43 | 0.00 | 93 | 1048.4 |
| 20260509222729 | 52 | 310 | 1.7 | 3.5 | 0.00 | 0.43 | 0.00 | 93 | 1048.4 |
| 20260509222717 | 52 | 310 | 1.7 | 2.6 | 0.00 | 0.43 | 0.00 | 93 | 1048.4 |
| 20260509222454 | 52 | 310 | 1.7 | 2.6 | 0.00 | 0.43 | 0.00 | 93 | 1048.4 |
| 20260509222131 | 53 | 310 | 1.7 | 2.6 | 0.00 | 0.43 | 0.00 | 93 | 1048.4 |
| 20260509222045 | 53 | 310 | 1.7 | 2.6 | 0.00 | 0.43 | 0.00 | 93 | 1048.4 |
| 20260509222028 | 53 | 310 | 1.7 | 2.6 | 0.00 | 0.43 | 0.00 | 92 | 1048.4 |
| 20260509222011 | 53 | 310 | 1.7 | 2.6 | 0.00 | 0.43 | 0.00 | 92 | 1048.3 |
| 20260509222002 | 53 | 312 | 1.7 | 2.6 | 0.00 | 0.43 | 0.00 | 92 | 1048.3 |
| 20260509221457 | 53 | 310 | 1.7 | 2.6 | 0.00 | 0.43 | 0.00 | 92 | 1048.3 |
| 20260509221411 | 53 | 310 | 1.7 | 2.6 | 0.00 | 0.43 | 0.00 | 92 | 1048.3 |
| 20260509221345 | 53 | 310 | 1.7 | 2.6 | 0.00 | 0.43 | 0.00 | 93 | 1048.3 |
| 20260509221337 | 53 | 310 | 1.7 | 2.6 | 0.00 | 0.43 | 0.00 | 93 | 1048.3 |
| 20260509221329 | 53 | 359 | 1.7 | 2.6 | 0.00 | 0.43 | 0.00 | 93 | 1048.3 |
| 20260509221320 | 53 | 312 | 1.7 | 2.6 | 0.00 | 0.43 | 0.00 | 93 | 1048.3 |
| 20260509221310 | 53 | 310 | 1.7 | 2.6 | 0.00 | 0.43 | 0.00 | 93 | 1048.3 |
| 20260509221040 | 53 | 310 | 1.7 | 2.6 | 0.00 | 0.43 | 0.00 | 93 | 1048.3 |
| 20260509220510 | 53 | 310 | 1.7 | 2.6 | 0.00 | 0.43 | 0.00 | 93 | 1048.3 |
| 20260509220457 | 53 | 310 | 1.7 | 2.6 | 0.00 | 0.43 | 0.00 | 93 | 1048.3 |
| 20260509220400 | 53 | 310 | 1.7 | 2.6 | 0.00 | 0.43 | 0.00 | 92 | 1048.3 |
| 20260509220259 | 53 | 310 | 1.7 | 2.6 | 0.00 | 0.43 | 0.00 | 92 | 1048.3 |
| 20260509220159 | 53 | 310 | 1.7 | 1.7 | 0.00 | 0.43 | 0.00 | 92 | 1048.3 |
| 20260509220127 | 53 | 310 | 1.7 | 2.6 | 0.00 | 0.43 | 0.00 | 92 | 1048.3 |
| 20260509220108 | 53 | 310 | 1.7 | 3.5 | 0.00 | 0.43 | 0.43 | 92 | 1048.3 |
| 20260509220054 | 53 | 310 | 1.7 | 3.5 | 0.00 | 0.43 | 0.43 | 92 | 1048.4 |
| 20260509220040 | 53 | 310 | 1.7 | 3.5 | 0.00 | 0.43 | 0.43 | 92 | 1048.4 |
| 20260509220031 | 53 | 310 | 1.7 | 3.5 | 0.00 | 0.43 | 0.43 | 92 | 1048.4 |
| 20260509215519 | 54 | 310 | 0.9 | 3.5 | 0.00 | 0.43 | 0.43 | 93 | 1048.4 |
| 20260509215500 | 54 | 310 | 0.9 | 3.5 | 0.00 | 0.43 | 0.43 | 93 | 1048.4 |
| 20260509215450 | 54 | 310 | 1.7 | 3.5 | 0.00 | 0.43 | 0.43 | 93 | 1048.4 |
| 20260509215220 | 54 | 310 | 0.9 | 2.6 | 0.00 | 0.43 | 0.43 | 93 | 1048.4 |
| 20260509214944 | 54 | 310 | 0.9 | 1.7 | 0.00 | 0.43 | 0.43 | 93 | 1048.4 |
| 20260509214929 | 54 | 310 | 0.9 | 1.7 | 0.00 | 0.43 | 0.43 | 93 | 1048.4 |
| 20260509214920 | 54 | 310 | 0.9 | 1.7 | 0.00 | 0.43 | 0.43 | 93 | 1048.4 |
| 20260509214644 | 54 | 310 | 0.9 | 1.7 | 0.00 | 0.43 | 0.43 | 92 | 1048.3 |
| 20260509214625 | 54 | 310 | 0.9 | 1.7 | 0.00 | 0.43 | 0.43 | 92 | 1048.3 |
| 20260509214356 | 54 | 310 | 0.9 | 1.7 | 0.00 | 0.43 | 0.43 | 92 | 1048.3 |
| 20260509214033 | 54 | 310 | 0.9 | 1.7 | 0.00 | 0.43 | 0.43 | 93 | 1048.3 |
| 20260509214007 | 54 | 310 | 0.9 | 1.7 | 0.00 | 0.43 | 0.43 | 93 | 1048.2 |
| 20260509213959 | 54 | 310 | 0.9 | 1.7 | 0.00 | 0.43 | 0.43 | 93 | 1048.2 |
| 20260509213632 | 54 | 310 | 1.7 | 2.6 | 0.00 | 0.43 | 0.43 | 93 | 1048.3 |
| 20260509213532 | 54 | 310 | 1.7 | 2.6 | 0.00 | 0.43 | 0.43 | 93 | 1048.3 |
| 20260509213431 | 54 | 310 | 1.7 | 2.6 | 0.00 | 0.43 | 0.43 | 93 | 1048.3 |
| 20260509213331 | 54 | 310 | 1.7 | 2.6 | 0.00 | 0.43 | 0.43 | 93 | 1048.3 |
| 20260509213231 | 54 | 310 | 1.7 | 2.6 | 0.00 | 0.43 | 0.43 | 93 | 1048.3 |
| 20260509213130 | 54 | 310 | 1.7 | 2.6 | 0.00 | 0.43 | 0.43 | 93 | 1048.3 |
| 20260509213030 | 54 | 310 | 1.7 | 2.6 | 0.00 | 0.43 | 0.43 | 93 | 1048.3 |
| 20260509213007 | 54 | 310 | 1.7 | 2.6 | 0.00 | 0.43 | 0.43 | 93 | 1048.3 |
| 20260509212959 | 54 | 311 | 1.7 | 2.6 | 0.00 | 0.43 | 0.43 | 93 | 1048.3 |
| 20260509212951 | 54 | 310 | 1.7 | 2.6 | 0.00 | 0.43 | 0.43 | 93 | 1048.3 |
| 20260509212628 | 54 | 310 | 0.9 | 2.6 | 0.00 | 0.43 | 0.43 | 93 | 1048.3 |
| 20260509212525 | 54 | 310 | 0.9 | 2.6 | 0.00 | 0.43 | 0.43 | 93 | 1048.3 |
| 20260509212425 | 54 | 310 | 0.9 | 2.6 | 0.00 | 0.43 | 0.43 | 93 | 1048.3 |
| 20260509212323 | 54 | 310 | 0.9 | 2.6 | 0.00 | 0.43 | 0.43 | 93 | 1048.4 |
| 20260509212222 | 54 | 310 | 0.9 | 1.7 | 0.00 | 0.43 | 0.43 | 93 | 1048.3 |
| 20260509212120 | 54 | 310 | 0.9 | 1.7 | 0.00 | 0.43 | 0.43 | 93 | 1048.3 |
| 20260509212024 | 54 | 310 | 0.9 | 1.7 | 0.00 | 0.43 | 0.43 | 93 | 1048.4 |
| 20260509211919 | 54 | 310 | 0.9 | 1.7 | 0.00 | 0.43 | 0.43 | 93 | 1048.4 |
| 20260509211818 | 54 | 310 | 0.9 | 1.7 | 0.00 | 0.43 | 0.43 | 93 | 1048.3 |
| 20260509211715 | 54 | 310 | 0.9 | 1.7 | 0.00 | 0.43 | 0.43 | 93 | 1048.4 |
| 20260509211610 | 54 | 310 | 0.9 | 1.7 | 0.00 | 0.43 | 0.43 | 93 | 1048.4 |
| 20260509211509 | 54 | 310 | 0.9 | 1.7 | 0.00 | 0.43 | 0.43 | 93 | 1048.3 |
| 20260509211410 | 54 | 310 | 0.9 | 1.7 | 0.00 | 0.43 | 0.43 | 93 | 1048.3 |
| 20260509211307 | 54 | 312 | 0.9 | 1.7 | 0.00 | 0.43 | 0.43 | 93 | 1048.3 |
| 20260509211204 | 54 | 310 | 0.9 | 1.7 | 0.00 | 0.43 | 0.43 | 93 | 1048.3 |
| 20260509211104 | 54 | 310 | 0.9 | 1.7 | 0.00 | 0.43 | 0.43 | 93 | 1048.3 |
| 20260509211003 | 54 | 310 | 0.9 | 1.7 | 0.00 | 0.43 | 0.43 | 93 | 1048.3 |
| 20260509210934 | 54 | 310 | 0.9 | 1.7 | 0.00 | 0.43 | 0.43 | 93 | 1048.3 |
| 20260509210928 | 54 | 310 | 0.9 | 1.7 | 0.00 | 0.43 | 0.43 | 93 | 1048.3 |
| 20260509210603 | 54 | 310 | 0.9 | 1.7 | 0.00 | 0.43 | 0.43 | 93 | 1048.2 |
| 20260509210525 | 54 | 310 | 0.9 | 1.7 | 0.00 | 0.43 | 0.43 | 93 | 1048.2 |
| 20260509210514 | 54 | 310 | 0.9 | 1.7 | 0.00 | 0.43 | 0.43 | 93 | 1048.2 |
| 20260509210507 | 54 | 310 | 0.9 | 2.6 | 0.00 | 0.43 | 0.43 | 93 | 1048.2 |
| 20260509210458 | 54 | 310 | 0.9 | 2.6 | 0.00 | 0.43 | 0.43 | 93 | 1048.2 |
| 20260509210446 | 54 | 310 | 1.7 | 2.6 | 0.00 | 0.43 | 0.43 | 93 | 1048.2 |
| 20260509205931 | 54 | 310 | 1.7 | 2.6 | 0.00 | 0.43 | 0.43 | 93 | 1048.2 |
| 20260509205923 | 54 | 310 | 1.7 | 2.6 | 0.00 | 0.43 | 0.43 | 92 | 1048.2 |
| 20260509205603 | 54 | 311 | 1.7 | 2.6 | 0.00 | 0.43 | 0.43 | 92 | 1048.2 |
| 20260509205511 | 54 | 310 | 1.7 | 2.6 | 0.00 | 0.43 | 0.43 | 92 | 1048.2 |
| 20260509205452 | 54 | 310 | 1.7 | 2.6 | 0.00 | 0.43 | 0.43 | 92 | 1048.2 |
| 20260509205442 | 54 | 310 | 1.7 | 2.6 | 0.00 | 0.43 | 0.43 | 92 | 1048.3 |
| 20260509205427 | 54 | 310 | 1.7 | 2.6 | 0.00 | 0.43 | 0.43 | 92 | 1048.2 |
| 20260509205418 | 55 | 310 | 1.7 | 2.6 | 0.00 | 0.43 | 0.43 | 92 | 1048.3 |
| 20260509205148 | 55 | 359 | 1.7 | 2.6 | 0.00 | 0.43 | 0.43 | 92 | 1048.2 |
| 20260509204916 | 55 | 310 | 1.7 | 2.6 | 0.00 | 0.43 | 0.43 | 92 | 1048.2 |
| 20260509204903 | 55 | 310 | 0.9 | 2.6 | 0.00 | 0.43 | 0.43 | 92 | 1048.2 |
| 20260509204853 | 55 | 310 | 0.9 | 2.6 | 0.00 | 0.43 | 0.43 | 92 | 1048.2 |
| 20260509204626 | 55 | 310 | 0.9 | 2.6 | 0.00 | 0.43 | 0.43 | 92 | 1048.2 |
| 20260509204303 | 55 | 310 | 0.9 | 1.7 | 0.00 | 0.43 | 0.43 | 92 | 1048.1 |
| 20260509204206 | 55 | 310 | 0.9 | 1.7 | 0.00 | 0.43 | 0.43 | 92 | 1048.1 |
| 20260509204104 | 55 | 310 | 0.9 | 1.7 | 0.00 | 0.43 | 0.43 | 92 | 1048.1 |
| 20260509204003 | 55 | 310 | 0.9 | 1.7 | 0.00 | 0.43 | 0.43 | 92 | 1048.1 |
| 20260509203905 | 55 | 310 | 0.9 | 1.7 | 0.00 | 0.43 | 0.43 | 92 | 1048.1 |
| 20260509203803 | 55 | 310 | 0.9 | 1.7 | 0.00 | 0.43 | 0.43 | 92 | 1048.1 |
| 20260509203704 | 55 | 310 | 0.9 | 1.7 | 0.00 | 0.43 | 0.43 | 92 | 1048.1 |
| 20260509203626 | 55 | 310 | 0.9 | 1.7 | 0.00 | 0.43 | 0.43 | 92 | 1048.1 |
| 20260509203614 | 55 | 310 | 0.9 | 1.7 | 0.00 | 0.43 | 0.43 | 92 | 1048.0 |
| 20260509203552 | 55 | 310 | 0.0 | 1.7 | 0.00 | 0.43 | 0.43 | 92 | 1048.1 |
| 20260509203328 | 55 | 310 | 0.0 | 1.7 | 0.00 | 0.43 | 0.43 | 92 | 1048.0 |
| 20260509203003 | 55 | 310 | 0.0 | 0.9 | 0.00 | 0.43 | 0.43 | 92 | 1048.0 |
| 20260509202905 | 55 | 310 | 0.0 | 0.9 | 0.00 | 0.43 | 0.43 | 92 | 1048.0 |
| 20260509202824 | 55 | 310 | 0.0 | 0.9 | 0.00 | 0.43 | 0.43 | 92 | 1047.9 |
| 20260509202816 | 55 | 310 | 0.0 | 1.7 | 0.00 | 0.43 | 0.43 | 92 | 1048.0 |
| 20260509202810 | 55 | 310 | 0.0 | 1.7 | 0.00 | 0.43 | 0.43 | 92 | 1048.0 |
| 20260509202539 | 55 | 311 | 0.9 | 1.7 | 0.00 | 0.43 | 0.43 | 92 | 1048.0 |
| 20260509202532 | 55 | 310 | 0.9 | 1.7 | 0.00 | 0.43 | 0.43 | 92 | 1048.0 |
| 20260509202523 | 55 | 310 | 0.9 | 1.7 | 0.00 | 0.43 | 0.43 | 92 | 1048.0 |
| 20260509202503 | 55 | 310 | 0.9 | 1.7 | 0.00 | 0.43 | 0.43 | 92 | 1048.0 |
| 20260509202452 | 55 | 310 | 0.9 | 1.7 | 0.00 | 0.43 | 0.43 | 92 | 1048.0 |
| 20260509202221 | 55 | 310 | 0.9 | 1.7 | 0.00 | 0.43 | 0.43 | 92 | 1048.0 |
| 20260509201952 | 55 | 310 | 0.9 | 1.7 | 0.00 | 0.43 | 0.43 | 92 | 1047.9 |
| 20260509201942 | 55 | 310 | 0.9 | 1.7 | 0.00 | 0.43 | 0.43 | 92 | 1047.9 |
| 20260509201422 | 55 | 310 | 0.9 | 2.6 | 0.00 | 0.43 | 0.43 | 92 | 1047.8 |
| 20260509201403 | 55 | 310 | 0.9 | 2.6 | 0.00 | 0.43 | 0.43 | 92 | 1047.8 |
| 20260509201301 | 55 | 310 | 0.9 | 2.6 | 0.00 | 0.43 | 0.43 | 92 | 1047.8 |
| 20260509201223 | 55 | 310 | 0.9 | 2.6 | 0.00 | 0.43 | 0.43 | 92 | 1047.8 |
| 20260509201217 | 55 | 310 | 0.9 | 2.6 | 0.00 | 0.43 | 0.43 | 92 | 1047.7 |
| 20260509200921 | 55 | 310 | 0.9 | 2.6 | 0.00 | 0.43 | 0.43 | 92 | 1047.7 |
| 20260509200856 | 55 | 310 | 0.9 | 2.6 | 0.00 | 0.43 | 0.43 | 92 | 1047.7 |
| 20260509200756 | 55 | 310 | 0.9 | 2.6 | 0.00 | 0.43 | 0.43 | 92 | 1047.7 |
| 20260509200728 | 55 | 310 | 0.9 | 2.6 | 0.00 | 0.43 | 0.43 | 92 | 1047.6 |
| 20260509200719 | 55 | 310 | 0.9 | 2.6 | 0.00 | 0.43 | 0.43 | 92 | 1047.7 |
| 20260509200421 | 55 | 310 | 0.9 | 2.6 | 0.00 | 0.43 | 0.43 | 92 | 1047.6 |
| 20260509200355 | 55 | 310 | 0.9 | 2.6 | 0.00 | 0.43 | 0.43 | 92 | 1047.6 |
| 20260509200256 | 55 | 310 | 0.9 | 1.7 | 0.00 | 0.43 | 0.43 | 92 | 1047.6 |
| 20260509200156 | 55 | 310 | 0.9 | 1.7 | 0.00 | 0.43 | 0.43 | 92 | 1047.6 |
| 20260509200056 | 55 | 310 | 0.9 | 1.7 | 0.00 | 0.43 | 0.43 | 92 | 1047.5 |
| 20260509195955 | 55 | 310 | 0.9 | 1.7 | 0.00 | 0.43 | 0.43 | 92 | 1047.5 |
| 20260509195921 | 55 | 310 | 0.9 | 1.7 | 0.00 | 0.43 | 0.43 | 92 | 1047.5 |
| 20260509195855 | 55 | 310 | 0.9 | 1.7 | 0.00 | 0.43 | 0.43 | 92 | 1047.5 |
| 20260509195755 | 55 | 310 | 0.9 | 1.7 | 0.00 | 0.43 | 0.43 | 92 | 1047.5 |
| 20260509195723 | 55 | 310 | 0.9 | 1.7 | 0.00 | 0.43 | 0.43 | 92 | 1047.5 |
| 20260509195715 | 55 | 310 | 0.9 | 1.7 | 0.00 | 0.43 | 0.43 | 92 | 1047.4 |
| 20260509195649 | 55 | 310 | 0.9 | 2.6 | 0.00 | 0.43 | 0.43 | 92 | 1047.4 |
| 20260509195427 | 55 | 310 | 0.9 | 2.6 | 0.00 | 0.43 | 0.43 | 92 | 1047.4 |
| 20260509195045 | 55 | 310 | 0.9 | 2.6 | 0.00 | 0.43 | 0.43 | 92 | 1047.3 |
| 20260509194921 | 55 | 310 | 0.9 | 2.6 | 0.00 | 0.43 | 0.43 | 92 | 1047.3 |
| 20260509194845 | 55 | 310 | 0.9 | 2.6 | 0.00 | 0.43 | 0.43 | 92 | 1047.3 |
| 20260509194745 | 55 | 310 | 0.9 | 2.6 | 0.00 | 0.43 | 0.43 | 92 | 1047.2 |
| 20260509194647 | 55 | 311 | 0.9 | 2.6 | 0.00 | 0.43 | 0.43 | 91 | 1047.2 |
| 20260509194546 | 55 | 310 | 0.9 | 2.6 | 0.00 | 0.43 | 0.43 | 91 | 1047.2 |
| 20260509194448 | 55 | 359 | 0.9 | 2.6 | 0.00 | 0.43 | 0.43 | 91 | 1047.1 |
| 20260509194436 | 55 | 310 | 0.9 | 2.6 | 0.00 | 0.43 | 0.43 | 91 | 1047.1 |
| 20260509194428 | 55 | 310 | 0.9 | 2.6 | 0.00 | 0.43 | 0.43 | 91 | 1047.1 |
| 20260509194416 | 55 | 310 | 0.9 | 2.6 | 0.00 | 0.43 | 0.43 | 91 | 1047.0 |
| 20260509194407 | 55 | 310 | 0.0 | 1.7 | 0.00 | 0.43 | 0.43 | 91 | 1047.0 |
| 20260509194138 | 55 | 310 | 0.0 | 0.9 | 0.00 | 0.43 | 0.43 | 91 | 1046.9 |
| 20260509194128 | 55 | 310 | 0.0 | 0.9 | 0.00 | 0.43 | 0.43 | 92 | 1046.9 |
| 20260509194119 | 55 | 310 | 0.0 | 0.0 | 0.00 | 0.43 | 0.43 | 92 | 1046.9 |
| 20260509193847 | 55 | 310 | 0.0 | 0.0 | 0.00 | 0.43 | 0.43 | 92 | 1046.8 |
| 20260509193838 | 55 | 310 | 0.0 | 0.9 | 0.00 | 0.43 | 0.43 | 92 | 1046.8 |
| 20260509193607 | 55 | 310 | 0.0 | 0.9 | 0.00 | 0.43 | 0.43 | 92 | 1046.8 |
| 20260509193559 | 55 | 310 | 0.0 | 0.9 | 0.00 | 0.43 | 0.43 | 92 | 1046.8 |
| 20260509193553 | 56 | 310 | 0.0 | 0.9 | 0.00 | 0.43 | 0.43 | 91 | 1046.8 |
| 20260509193541 | 56 | 310 | 0.0 | 0.9 | 0.00 | 0.43 | 0.43 | 92 | 1046.7 |
| 20260509193314 | 56 | 310 | 0.0 | 0.9 | 0.00 | 0.43 | 0.43 | 91 | 1046.8 |
| 20260509192802 | 56 | 310 | 0.0 | 0.9 | 0.00 | 0.43 | 0.43 | 91 | 1046.8 |
| 20260509192755 | 56 | 310 | 0.0 | 0.9 | 0.00 | 0.43 | 0.43 | 91 | 1046.8 |
| 20260509192426 | 56 | 310 | 0.0 | 0.9 | 0.00 | 0.43 | 0.43 | 91 | 1046.8 |
| 20260509192331 | 56 | 310 | 0.0 | 0.9 | 0.00 | 0.43 | 0.43 | 91 | 1046.7 |
| 20260509192232 | 56 | 310 | 0.0 | 0.9 | 0.00 | 0.43 | 0.43 | 91 | 1046.7 |
| 20260509192133 | 56 | 310 | 0.0 | 0.9 | 0.00 | 0.43 | 0.43 | 91 | 1046.6 |
| 20260509192031 | 56 | 310 | 0.0 | 0.9 | 0.00 | 0.43 | 0.43 | 91 | 1046.6 |
| 20260509191918 | 56 | 310 | 0.0 | 0.9 | 0.00 | 0.43 | 0.43 | 91 | 1046.6 |
| 20260509191832 | 56 | 310 | 0.0 | 0.9 | 0.00 | 0.43 | 0.43 | 91 | 1046.6 |
| 20260509191745 | 56 | 310 | 0.0 | 0.9 | 0.00 | 0.43 | 0.43 | 91 | 1046.6 |
| 20260509191738 | 56 | 310 | 0.0 | 0.9 | 0.00 | 0.43 | 0.43 | 91 | 1046.6 |
| 20260509191724 | 56 | 310 | 0.0 | 0.9 | 0.00 | 0.43 | 0.43 | 92 | 1046.6 |
| 20260509191455 | 56 | 310 | 0.0 | 0.9 | 0.00 | 0.43 | 0.43 | 92 | 1046.5 |
| 20260509191445 | 56 | 310 | 0.0 | 0.9 | 0.00 | 0.43 | 0.43 | 92 | 1046.5 |
| 20260509191123 | 56 | 310 | 0.0 | 1.7 | 0.00 | 0.43 | 0.43 | 92 | 1046.4 |
| 20260509191027 | 56 | 310 | 0.0 | 1.7 | 0.00 | 0.43 | 0.43 | 92 | 1046.4 |
| 20260509190952 | 56 | 310 | 0.0 | 1.7 | 0.00 | 0.43 | 0.43 | 92 | 1046.4 |
| 20260509190944 | 56 | 310 | 0.9 | 2.6 | 0.00 | 0.43 | 0.43 | 92 | 1046.5 |
| 20260509190615 | 56 | 312 | 0.9 | 2.6 | 0.00 | 0.43 | 0.43 | 92 | 1046.4 |
| 20260509190515 | 56 | 310 | 0.9 | 2.6 | 0.00 | 0.43 | 0.43 | 92 | 1046.4 |
| 20260509190453 | 56 | 310 | 0.9 | 2.6 | 0.00 | 0.43 | 0.43 | 92 | 1046.4 |
| 20260509190443 | 56 | 310 | 0.9 | 2.6 | 0.00 | 0.43 | 0.43 | 92 | 1046.3 |
| 20260509190155 | 56 | 359 | 0.9 | 2.6 | 0.00 | 0.43 | 0.43 | 92 | 1046.3 |
| 20260509190147 | 56 | 310 | 0.9 | 2.6 | 0.00 | 0.43 | 0.43 | 92 | 1046.3 |
| 20260509190129 | 56 | 310 | 0.9 | 2.6 | 0.00 | 0.43 | 0.43 | 92 | 1046.3 |
| 20260509185809 | 56 | 310 | 0.9 | 2.6 | 0.00 | 0.43 | 0.43 | 92 | 1046.4 |
| 20260509185724 | 56 | 310 | 0.9 | 2.6 | 0.00 | 0.43 | 0.43 | 92 | 1046.4 |
| 20260509185717 | 56 | 310 | 0.9 | 3.5 | 0.00 | 0.43 | 0.43 | 92 | 1046.4 |
| 20260509185710 | 56 | 310 | 0.9 | 3.5 | 0.00 | 0.43 | 0.43 | 92 | 1046.4 |
| 20260509185652 | 56 | 310 | 0.9 | 3.5 | 0.00 | 0.43 | 0.43 | 92 | 1046.4 |
| 20260509185643 | 56 | 310 | 0.9 | 3.5 | 0.00 | 0.43 | 0.43 | 92 | 1046.4 |
| 20260509185139 | 56 | 310 | 1.7 | 3.5 | 0.00 | 0.43 | 0.43 | 92 | 1046.3 |
| 20260509184903 | 56 | 310 | 1.7 | 3.5 | 0.00 | 0.43 | 0.43 | 92 | 1046.4 |
| 20260509184803 | 56 | 359 | 0.9 | 3.5 | 0.00 | 0.43 | 0.43 | 92 | 1046.3 |
| 20260509184703 | 56 | 310 | 0.9 | 5.2 | 0.00 | 0.43 | 0.43 | 92 | 1046.3 |
| 20260509184603 | 56 | 309 | 0.9 | 5.2 | 0.00 | 0.43 | 0.43 | 92 | 1046.2 |
| 20260509184504 | 56 | 309 | 0.9 | 5.2 | 0.00 | 0.43 | 0.43 | 92 | 1046.2 |
| 20260509184416 | 56 | 310 | 0.9 | 5.2 | 0.00 | 0.43 | 0.43 | 92 | 1046.3 |
| 20260509184403 | 56 | 309 | 0.9 | 5.2 | 0.00 | 0.43 | 0.43 | 92 | 1046.3 |
| 20260509184304 | 56 | 310 | 0.9 | 5.2 | 0.00 | 0.43 | 0.43 | 92 | 1046.2 |
| 20260509184203 | 56 | 310 | 0.9 | 5.2 | 0.00 | 0.43 | 0.43 | 92 | 1046.2 |
| 20260509184104 | 56 | 310 | 0.9 | 5.2 | 0.00 | 0.43 | 0.43 | 92 | 1046.2 |
| 20260509184003 | 56 | 310 | 0.9 | 5.2 | 0.00 | 0.43 | 0.43 | 92 | 1046.2 |
| 20260509183916 | 56 | 309 | 0.9 | 5.2 | 0.00 | 0.43 | 0.43 | 92 | 1046.2 |
| 20260509183903 | 56 | 310 | 0.9 | 5.2 | 0.00 | 0.43 | 0.43 | 92 | 1046.2 |
| 20260509183803 | 56 | 309 | 0.9 | 5.2 | 0.00 | 0.43 | 0.43 | 92 | 1046.1 |
| 20260509183703 | 56 | 308 | 0.9 | 2.6 | 0.00 | 0.43 | 0.43 | 92 | 1046.1 |
| 20260509183651 | 56 | 308 | 0.9 | 2.6 | 0.00 | 0.43 | 0.43 | 92 | 1046.1 |
| 20260509183638 | 56 | 308 | 1.7 | 4.3 | 0.00 | 0.43 | 0.43 | 92 | 1046.1 |
| 20260509183403 | 56 | 310 | 1.7 | 4.3 | 0.00 | 0.43 | 0.43 | 92 | 1046.1 |
| 20260509183303 | 56 | 310 | 1.7 | 4.3 | 0.00 | 0.43 | 0.43 | 92 | 1046.0 |
| 20260509183204 | 56 | 310 | 1.7 | 4.3 | 0.00 | 0.43 | 0.43 | 92 | 1046.0 |
| 20260509183103 | 56 | 309 | 1.7 | 4.3 | 0.00 | 0.43 | 0.43 | 92 | 1046.0 |
| 20260509182957 | 56 | 311 | 1.7 | 4.3 | 0.06 | 0.43 | 0.43 | 92 | 1046.0 |
| 20260509182910 | 56 | 310 | 1.7 | 4.3 | 0.06 | 0.43 | 0.43 | 92 | 1045.9 |
| 20260509182855 | 56 | 311 | 1.7 | 4.3 | 0.06 | 0.43 | 0.43 | 92 | 1045.9 |
| 20260509182755 | 56 | 311 | 1.7 | 4.3 | 0.06 | 0.43 | 0.43 | 92 | 1045.9 |
| 20260509182656 | 56 | 310 | 2.6 | 4.3 | 0.06 | 0.43 | 0.43 | 92 | 1045.9 |
| 20260509182639 | 56 | 310 | 2.6 | 4.3 | 0.06 | 0.43 | 0.43 | 92 | 1045.8 |
| 20260509182626 | 56 | 354 | 2.6 | 4.3 | 0.06 | 0.43 | 0.43 | 92 | 1045.9 |
| 20260509182355 | 56 | 354 | 2.6 | 4.3 | 0.06 | 0.43 | 0.43 | 92 | 1045.8 |
| 20260509182255 | 56 | 359 | 1.7 | 4.3 | 0.06 | 0.43 | 0.43 | 92 | 1045.8 |
| 20260509182155 | 56 | 359 | 1.7 | 4.3 | 0.06 | 0.43 | 0.43 | 92 | 1045.8 |
| 20260509182055 | 56 | 359 | 1.7 | 4.3 | 0.06 | 0.43 | 0.43 | 92 | 1045.8 |
| 20260509181955 | 56 | 359 | 1.7 | 4.3 | 0.06 | 0.43 | 0.43 | 92 | 1045.8 |
| 20260509181910 | 56 | 359 | 1.7 | 4.3 | 0.06 | 0.43 | 0.43 | 92 | 1045.8 |
| 20260509181858 | 56 | 359 | 1.7 | 4.3 | 0.06 | 0.43 | 0.43 | 92 | 1045.8 |
| 20260509181755 | 56 | 359 | 1.7 | 4.3 | 0.06 | 0.43 | 0.43 | 92 | 1045.8 |
| 20260509181742 | 56 | 359 | 1.7 | 4.3 | 0.06 | 0.43 | 0.43 | 92 | 1045.7 |
| 20260509181731 | 56 | 359 | 0.9 | 4.3 | 0.06 | 0.43 | 0.43 | 92 | 1045.7 |
| 20260509181456 | 56 | 4 | 0.9 | 3.5 | 0.06 | 0.43 | 0.43 | 92 | 1045.6 |
| 20260509181448 | 56 | 4 | 0.9 | 3.5 | 0.06 | 0.43 | 0.43 | 92 | 1045.6 |
| 20260509181438 | 56 | 4 | 0.9 | 3.5 | 0.06 | 0.43 | 0.43 | 92 | 1045.7 |
| 20260509181432 | 56 | 4 | 0.9 | 3.5 | 0.06 | 0.43 | 0.43 | 92 | 1045.6 |
| 20260509181423 | 56 | 4 | 0.9 | 3.5 | 0.06 | 0.43 | 0.43 | 92 | 1045.7 |
| 20260509181412 | 56 | 4 | 0.9 | 3.5 | 0.06 | 0.43 | 0.43 | 92 | 1045.6 |
| 20260509181359 | 56 | 4 | 0.0 | 3.5 | 0.06 | 0.43 | 0.43 | 92 | 1045.6 |
| 20260509180919 | 56 | 14 | 0.0 | 1.7 | 0.06 | 0.43 | 0.43 | 92 | 1045.6 |
| 20260509180909 | 56 | 14 | 0.0 | 1.7 | 0.06 | 0.43 | 0.43 | 92 | 1045.6 |
| 20260509180857 | 56 | 14 | 0.0 | 1.7 | 0.06 | 0.43 | 0.43 | 92 | 1045.6 |
| 20260509180631 | 56 | 14 | 0.0 | 1.7 | 0.06 | 0.43 | 0.43 | 92 | 1045.6 |
| 20260509180051 | 56 | 14 | 0.0 | 0.9 | 0.06 | 0.43 | 0.43 | 92 | 1045.6 |
| 20260509175949 | 56 | 14 | 0.0 | 1.7 | 0.06 | 0.43 | 0.43 | 92 | 1045.6 |
| 20260509175904 | 56 | 14 | 0.0 | 2.6 | 0.06 | 0.43 | 0.43 | 92 | 1045.6 |
| 20260509175850 | 56 | 14 | 0.0 | 2.6 | 0.06 | 0.43 | 0.43 | 92 | 1045.6 |
| 20260509175749 | 56 | 14 | 0.9 | 2.6 | 0.06 | 0.43 | 0.43 | 92 | 1045.6 |
| 20260509175649 | 56 | 14 | 0.9 | 2.6 | 0.06 | 0.43 | 0.43 | 92 | 1045.6 |
| 20260509175549 | 56 | 14 | 0.9 | 2.6 | 0.06 | 0.43 | 0.43 | 92 | 1045.6 |
| 20260509175515 | 56 | 14 | 0.9 | 3.5 | 0.06 | 0.43 | 0.43 | 92 | 1045.6 |
| 20260509175503 | 56 | 14 | 0.9 | 3.5 | 0.06 | 0.43 | 0.43 | 92 | 1045.5 |
| 20260509175456 | 56 | 14 | 0.9 | 3.5 | 0.06 | 0.43 | 0.43 | 92 | 1045.5 |
| 20260509175443 | 56 | 14 | 1.7 | 3.5 | 0.06 | 0.43 | 0.43 | 92 | 1045.6 |
| 20260509175217 | 56 | 14 | 1.7 | 3.5 | 0.06 | 0.43 | 0.43 | 92 | 1045.5 |
| 20260509175139 | 56 | 14 | 1.7 | 3.5 | 0.06 | 0.43 | 0.43 | 92 | 1045.5 |
| 20260509174912 | 56 | 14 | 0.9 | 3.5 | 0.06 | 0.43 | 0.43 | 92 | 1045.4 |
| 20260509174639 | 56 | 14 | 0.9 | 3.5 | 0.06 | 0.43 | 0.43 | 92 | 1045.4 |
| 20260509174609 | 56 | 14 | 0.9 | 2.6 | 0.06 | 0.43 | 0.43 | 92 | 1045.4 |
| 20260509174309 | 56 | 14 | 0.9 | 2.6 | 0.06 | 0.43 | 0.43 | 92 | 1045.2 |
| 20260509174301 | 56 | 14 | 0.9 | 2.6 | 0.06 | 0.43 | 0.43 | 92 | 1045.4 |
| 20260509174250 | 56 | 14 | 0.9 | 3.5 | 0.07 | 0.43 | 0.43 | 92 | 1045.2 |
| 20260509174230 | 56 | 14 | 0.9 | 3.5 | 0.07 | 0.43 | 0.43 | 92 | 1045.2 |
| 20260509173646 | 56 | 14 | 0.9 | 3.5 | 0.07 | 0.43 | 0.43 | 92 | 1045.2 |
| 20260509173545 | 56 | 14 | 1.7 | 3.5 | 0.07 | 0.43 | 0.43 | 92 | 1045.2 |
| 20260509173446 | 56 | 14 | 1.7 | 3.5 | 0.07 | 0.43 | 0.43 | 92 | 1045.4 |
| 20260509173404 | 56 | 14 | 1.7 | 3.5 | 0.08 | 0.43 | 0.43 | 92 | 1045.4 |
| 20260509173345 | 56 | 14 | 1.7 | 3.5 | 0.08 | 0.43 | 0.43 | 92 | 1045.4 |
| 20260509173245 | 56 | 14 | 1.7 | 3.5 | 0.08 | 0.43 | 0.43 | 92 | 1045.4 |
| 20260509173214 | 56 | 14 | 1.7 | 3.5 | 0.08 | 0.43 | 0.43 | 92 | 1045.4 |
| 20260509173207 | 56 | 14 | 1.7 | 3.5 | 0.08 | 0.43 | 0.38 | 92 | 1045.4 |
| 20260509172906 | 56 | 14 | 1.7 | 3.5 | 0.03 | 0.38 | 0.38 | 92 | 1045.4 |
| 20260509172845 | 56 | 14 | 1.7 | 3.5 | 0.03 | 0.38 | 0.38 | 92 | 1045.4 |
| 20260509172745 | 56 | 14 | 1.7 | 3.5 | 0.03 | 0.38 | 0.38 | 92 | 1045.4 |
| 20260509172645 | 56 | 14 | 1.7 | 3.5 | 0.03 | 0.38 | 0.38 | 92 | 1045.4 |
| 20260509172545 | 56 | 14 | 1.7 | 3.5 | 0.04 | 0.38 | 0.38 | 92 | 1045.4 |
| 20260509172530 | 56 | 15 | 1.7 | 3.5 | 0.04 | 0.38 | 0.38 | 92 | 1045.4 |
| 20260509172514 | 56 | 14 | 1.7 | 3.5 | 0.04 | 0.38 | 0.38 | 92 | 1045.4 |
| 20260509172507 | 56 | 14 | 1.7 | 3.5 | 0.04 | 0.38 | 0.38 | 92 | 1045.5 |
| 20260509172145 | 56 | 14 | 1.7 | 4.3 | 0.05 | 0.38 | 0.38 | 92 | 1045.4 |
| 20260509172047 | 56 | 14 | 1.7 | 4.3 | 0.05 | 0.38 | 0.38 | 92 | 1045.2 |
| 20260509171947 | 56 | 14 | 1.7 | 4.3 | 0.05 | 0.38 | 0.38 | 92 | 1045.2 |
| 20260509171904 | 56 | 14 | 1.7 | 4.3 | 0.06 | 0.38 | 0.38 | 92 | 1045.2 |
| 20260509171845 | 56 | 14 | 1.7 | 4.3 | 0.06 | 0.38 | 0.38 | 92 | 1045.2 |
| 20260509171745 | 56 | 15 | 1.7 | 4.3 | 0.06 | 0.38 | 0.38 | 92 | 1045.2 |
| 20260509171645 | 56 | 16 | 1.7 | 4.3 | 0.06 | 0.38 | 0.38 | 92 | 1045.2 |
| 20260509171545 | 56 | 15 | 1.7 | 4.3 | 0.06 | 0.38 | 0.38 | 92 | 1045.2 |
| 20260509171445 | 56 | 15 | 1.7 | 4.3 | 0.06 | 0.38 | 0.38 | 92 | 1045.2 |
| 20260509171404 | 56 | 15 | 1.7 | 4.3 | 0.06 | 0.38 | 0.38 | 92 | 1045.2 |
| 20260509171344 | 56 | 15 | 1.7 | 4.3 | 0.06 | 0.38 | 0.38 | 92 | 1045.2 |
| 20260509171321 | 56 | 16 | 1.7 | 4.3 | 0.07 | 0.38 | 0.38 | 92 | 1045.2 |
| 20260509171311 | 56 | 16 | 1.7 | 4.3 | 0.07 | 0.38 | 0.38 | 92 | 1045.4 |
| 20260509170951 | 56 | 16 | 1.7 | 4.3 | 0.08 | 0.38 | 0.38 | 92 | 1045.4 |
| 20260509170940 | 56 | 16 | 1.7 | 4.3 | 0.09 | 0.38 | 0.38 | 92 | 1045.4 |
| 20260509170931 | 56 | 16 | 1.7 | 4.3 | 0.09 | 0.38 | 0.38 | 92 | 1045.4 |
| 20260509170921 | 56 | 14 | 1.7 | 4.3 | 0.09 | 0.38 | 0.38 | 92 | 1045.4 |
| 20260509170915 | 56 | 14 | 1.7 | 4.3 | 0.09 | 0.38 | 0.38 | 92 | 1045.5 |
| 20260509170900 | 56 | 14 | 1.7 | 4.3 | 0.09 | 0.38 | 0.38 | 92 | 1045.5 |
| 20260509170849 | 56 | 14 | 1.7 | 4.3 | 0.09 | 0.38 | 0.38 | 92 | 1045.5 |
| 20260509170404 | 56 | 14 | 1.7 | 4.3 | 0.10 | 0.38 | 0.38 | 92 | 1045.6 |
| 20260509170354 | 56 | 14 | 1.7 | 6.1 | 0.10 | 0.38 | 0.38 | 91 | 1045.6 |
| 20260509170348 | 56 | 14 | 1.7 | 6.1 | 0.11 | 0.38 | 0.37 | 91 | 1045.7 |
| 20260509165841 | 56 | 16 | 1.7 | 6.1 | 0.11 | 0.37 | 0.37 | 91 | 1045.8 |
| 20260509165741 | 56 | 16 | 1.7 | 6.1 | 0.12 | 0.37 | 0.37 | 91 | 1045.9 |
| 20260509165640 | 56 | 16 | 1.7 | 6.1 | 0.12 | 0.37 | 0.37 | 91 | 1045.9 |
| 20260509165541 | 56 | 16 | 1.7 | 6.1 | 0.13 | 0.37 | 0.37 | 91 | 1045.9 |
| 20260509165441 | 56 | 16 | 1.7 | 6.1 | 0.13 | 0.37 | 0.37 | 91 | 1045.9 |
| 20260509165404 | 56 | 16 | 1.7 | 6.1 | 0.13 | 0.37 | 0.37 | 91 | 1045.9 |
| 20260509165341 | 56 | 16 | 1.7 | 6.1 | 0.13 | 0.37 | 0.37 | 91 | 1046.0 |
| 20260509165241 | 56 | 16 | 1.7 | 6.1 | 0.14 | 0.37 | 0.37 | 91 | 1046.1 |
| 20260509165212 | 56 | 16 | 1.7 | 6.1 | 0.14 | 0.37 | 0.37 | 91 | 1046.0 |
| 20260509165206 | 56 | 16 | 2.6 | 6.1 | 0.15 | 0.37 | 0.37 | 91 | 1046.1 |
| 20260509164903 | 56 | 17 | 2.6 | 6.1 | 0.16 | 0.37 | 0.37 | 91 | 1046.1 |
| 20260509164841 | 56 | 17 | 2.6 | 6.1 | 0.16 | 0.37 | 0.37 | 91 | 1046.1 |
| 20260509164741 | 56 | 17 | 2.6 | 6.1 | 0.16 | 0.37 | 0.37 | 91 | 1046.1 |
| 20260509164646 | 56 | 16 | 2.6 | 7.0 | 0.17 | 0.37 | 0.37 | 91 | 1046.1 |
| 20260509164636 | 56 | 17 | 2.6 | 7.0 | 0.17 | 0.37 | 0.37 | 91 | 1046.1 |
| 20260509164626 | 56 | 18 | 2.6 | 7.0 | 0.17 | 0.37 | 0.37 | 91 | 1046.1 |
| 20260509164337 | 56 | 18 | 2.6 | 7.0 | 0.17 | 0.37 | 0.37 | 91 | 1046.2 |
| 20260509164237 | 56 | 19 | 2.6 | 7.0 | 0.18 | 0.37 | 0.37 | 91 | 1046.2 |
| 20260509164151 | 56 | 16 | 2.6 | 7.0 | 0.18 | 0.37 | 0.36 | 91 | 1046.2 |
| 20260509164143 | 56 | 18 | 2.6 | 7.0 | 0.18 | 0.36 | 0.36 | 91 | 1046.2 |
| 20260509164125 | 56 | 16 | 2.6 | 7.0 | 0.18 | 0.36 | 0.36 | 91 | 1046.3 |
| 20260509164115 | 56 | 16 | 2.6 | 7.0 | 0.19 | 0.36 | 0.36 | 91 | 1046.3 |
| 20260509163850 | 56 | 9 | 2.6 | 7.0 | 0.20 | 0.36 | 0.36 | 91 | 1046.4 |
| 20260509163531 | 57 | 29 | 2.6 | 5.2 | 0.20 | 0.36 | 0.36 | 91 | 1046.5 |
| 20260509163431 | 57 | 31 | 2.6 | 5.2 | 0.21 | 0.36 | 0.35 | 91 | 1046.6 |
| 20260509163404 | 57 | 29 | 2.6 | 5.2 | 0.20 | 0.35 | 0.35 | 91 | 1046.6 |
| 20260509163329 | 57 | 31 | 2.6 | 5.2 | 0.21 | 0.35 | 0.35 | 91 | 1046.6 |
| 20260509163232 | 57 | 23 | 1.7 | 4.3 | 0.21 | 0.35 | 0.35 | 91 | 1046.7 |
| 20260509163132 | 57 | 23 | 1.7 | 4.3 | 0.22 | 0.35 | 0.35 | 91 | 1046.6 |
| 20260509163032 | 57 | 25 | 1.7 | 4.3 | 0.23 | 0.35 | 0.35 | 91 | 1046.7 |
| 20260509162932 | 57 | 228 | 1.7 | 4.3 | 0.24 | 0.35 | 0.35 | 91 | 1046.8 |
| 20260509162906 | 57 | 228 | 1.7 | 4.3 | 0.23 | 0.35 | 0.35 | 91 | 1046.8 |
| 20260509162833 | 57 | 226 | 1.7 | 4.3 | 0.24 | 0.35 | 0.35 | 91 | 1046.8 |
| 20260509162731 | 57 | 223 | 1.7 | 3.5 | 0.24 | 0.35 | 0.35 | 91 | 1046.8 |
| 20260509162628 | 57 | 220 | 0.9 | 3.5 | 0.24 | 0.35 | 0.34 | 91 | 1046.8 |
| 20260509162526 | 57 | 220 | 0.9 | 3.5 | 0.24 | 0.34 | 0.34 | 91 | 1046.9 |
| 20260509162407 | 57 | 220 | 0.9 | 3.5 | 0.24 | 0.34 | 0.34 | 91 | 1046.9 |
| 20260509162326 | 57 | 220 | 0.9 | 3.5 | 0.24 | 0.34 | 0.33 | 91 | 1047.0 |
| 20260509162224 | 57 | 217 | 0.9 | 3.5 | 0.24 | 0.33 | 0.33 | 91 | 1047.0 |
| 20260509162210 | 57 | 217 | 0.9 | 3.5 | 0.24 | 0.33 | 0.33 | 91 | 1047.0 |
| 20260509162202 | 57 | 217 | 0.9 | 3.5 | 0.25 | 0.33 | 0.32 | 91 | 1047.0 |
| 20260509162150 | 57 | 216 | 0.9 | 3.5 | 0.25 | 0.32 | 0.32 | 91 | 1047.1 |
| 20260509161922 | 57 | 216 | 0.9 | 3.5 | 0.25 | 0.32 | 0.32 | 91 | 1047.1 |
| 20260509161910 | 57 | 217 | 0.9 | 3.5 | 0.26 | 0.32 | 0.32 | 91 | 1047.1 |
| 20260509161849 | 57 | 217 | 0.9 | 3.5 | 0.26 | 0.32 | 0.31 | 91 | 1047.2 |
| 20260509161617 | 57 | 217 | 0.9 | 3.5 | 0.26 | 0.31 | 0.31 | 91 | 1047.2 |
| 20260509161601 | 57 | 216 | 0.9 | 3.5 | 0.26 | 0.31 | 0.31 | 91 | 1047.2 |
| 20260509161550 | 57 | 216 | 0.9 | 3.5 | 0.25 | 0.31 | 0.31 | 91 | 1047.2 |
| 20260509161051 | 57 | 214 | 0.9 | 3.5 | 0.24 | 0.30 | 0.29 | 91 | 1047.4 |
| 20260509161040 | 57 | 213 | 0.9 | 3.5 | 0.24 | 0.29 | 0.29 | 91 | 1047.3 |
| 20260509161029 | 57 | 213 | 0.9 | 3.5 | 0.24 | 0.29 | 0.29 | 91 | 1047.4 |
| 20260509160705 | 57 | 212 | 0.9 | 1.7 | 0.24 | 0.29 | 0.28 | 91 | 1047.4 |
| 20260509160618 | 57 | 212 | 0.9 | 1.7 | 0.24 | 0.28 | 0.28 | 91 | 1047.4 |
| 20260509160610 | 57 | 212 | 0.9 | 1.7 | 0.24 | 0.28 | 0.28 | 91 | 1047.5 |
| 20260509160557 | 57 | 212 | 0.9 | 1.7 | 0.23 | 0.28 | 0.28 | 91 | 1047.5 |
| 20260509160305 | 57 | 212 | 0.9 | 1.7 | 0.23 | 0.28 | 0.28 | 91 | 1047.6 |
| 20260509160205 | 57 | 212 | 0.9 | 1.7 | 0.23 | 0.28 | 0.27 | 91 | 1047.6 |
| 20260509160104 | 57 | 212 | 0.9 | 1.7 | 0.22 | 0.27 | 0.27 | 91 | 1047.6 |
| 20260509160049 | 57 | 212 | 0.9 | 1.7 | 0.22 | 0.27 | 0.26 | 91 | 1047.7 |
| 20260509160039 | 57 | 212 | 0.9 | 1.7 | 0.21 | 0.26 | 0.26 | 91 | 1047.7 |
| 20260509160030 | 57 | 212 | 0.9 | 2.6 | 0.21 | 0.26 | 0.25 | 91 | 1047.7 |
| 20260509155704 | 57 | 212 | 0.9 | 2.6 | 0.20 | 0.25 | 0.24 | 91 | 1047.7 |
| 20260509155604 | 57 | 212 | 0.9 | 2.6 | 0.20 | 0.24 | 0.24 | 91 | 1047.7 |
| 20260509155504 | 57 | 212 | 1.7 | 2.6 | 0.20 | 0.24 | 0.24 | 90 | 1047.8 |
| 20260509155356 | 57 | 213 | 1.7 | 2.6 | 0.19 | 0.24 | 0.23 | 91 | 1047.8 |
| 20260509155337 | 57 | 212 | 1.7 | 2.6 | 0.19 | 0.24 | 0.23 | 91 | 1047.8 |
| 20260509155257 | 57 | 212 | 1.7 | 2.6 | 0.18 | 0.23 | 0.23 | 91 | 1047.8 |
| 20260509155157 | 57 | 213 | 0.9 | 2.6 | 0.19 | 0.23 | 0.22 | 91 | 1047.8 |
| 20260509155057 | 57 | 212 | 0.9 | 2.6 | 0.18 | 0.22 | 0.22 | 91 | 1047.8 |
| 20260509154957 | 57 | 212 | 0.9 | 2.6 | 0.18 | 0.22 | 0.21 | 90 | 1047.9 |
| 20260509154856 | 57 | 212 | 0.9 | 2.6 | 0.17 | 0.21 | 0.21 | 90 | 1047.9 |
| 20260509154836 | 57 | 212 | 1.7 | 2.6 | 0.17 | 0.21 | 0.21 | 90 | 1047.9 |
| 20260509154755 | 57 | 213 | 1.7 | 3.5 | 0.17 | 0.21 | 0.21 | 90 | 1047.9 |
| 20260509154734 | 57 | 212 | 1.7 | 3.5 | 0.17 | 0.21 | 0.20 | 90 | 1047.9 |
| 20260509154727 | 57 | 212 | 1.7 | 3.5 | 0.17 | 0.20 | 0.20 | 90 | 1047.9 |
| 20260509154421 | 57 | 212 | 0.9 | 3.5 | 0.16 | 0.20 | 0.19 | 90 | 1048.0 |
| 20260509154408 | 57 | 212 | 0.9 | 3.5 | 0.15 | 0.19 | 0.19 | 90 | 1048.0 |
| 20260509154043 | 57 | 212 | 0.9 | 3.5 | 0.14 | 0.18 | 0.18 | 90 | 1048.1 |
| 20260509153941 | 57 | 212 | 0.9 | 3.5 | 0.14 | 0.18 | 0.17 | 90 | 1048.1 |
| 20260509153838 | 57 | 212 | 0.9 | 3.5 | 0.13 | 0.17 | 0.17 | 90 | 1048.1 |
| 20260509153741 | 57 | 210 | 0.9 | 2.6 | 0.13 | 0.17 | 0.17 | 90 | 1048.1 |
| 20260509153640 | 57 | 210 | 0.9 | 4.3 | 0.13 | 0.17 | 0.16 | 90 | 1048.2 |
| 20260509153539 | 57 | 210 | 0.9 | 4.3 | 0.12 | 0.16 | 0.15 | 90 | 1048.2 |
| 20260509153439 | 57 | 210 | 0.9 | 4.3 | 0.11 | 0.15 | 0.14 | 90 | 1048.2 |
| 20260509153359 | 57 | 210 | 1.7 | 4.3 | 0.10 | 0.14 | 0.14 | 90 | 1048.3 |
| 20260509153347 | 57 | 210 | 1.7 | 4.3 | 0.10 | 0.14 | 0.13 | 89 | 1048.3 |
| 20260509153336 | 57 | 209 | 1.7 | 4.3 | 0.09 | 0.13 | 0.13 | 89 | 1048.3 |
| 20260509153327 | 58 | 209 | 1.7 | 4.3 | 0.09 | 0.13 | 0.12 | 89 | 1048.3 |
| 20260509153320 | 58 | 210 | 2.6 | 4.3 | 0.08 | 0.12 | 0.12 | 90 | 1048.3 |
| 20260509152731 | 58 | 209 | 1.7 | 4.3 | 0.07 | 0.11 | 0.10 | 89 | 1048.4 |
| 20260509152649 | 58 | 210 | 1.7 | 4.3 | 0.06 | 0.10 | 0.10 | 89 | 1048.4 |
| 20260509152641 | 58 | 210 | 1.7 | 4.3 | 0.06 | 0.10 | 0.09 | 89 | 1048.4 |
| 20260509152628 | 58 | 210 | 2.6 | 5.2 | 0.06 | 0.09 | 0.09 | 89 | 1048.4 |
| 20260509152400 | 58 | 206 | 2.6 | 6.1 | 0.06 | 0.09 | 0.09 | 89 | 1048.4 |
| 20260509152350 | 58 | 205 | 2.6 | 6.1 | 0.05 | 0.09 | 0.09 | 89 | 1048.4 |
| 20260509152119 | 58 | 206 | 2.6 | 6.1 | 0.04 | 0.08 | 0.08 | 89 | 1048.4 |
| 20260509152108 | 58 | 206 | 3.5 | 7.8 | 0.04 | 0.08 | 0.07 | 89 | 1048.3 |
| 20260509151831 | 58 | 206 | 3.5 | 7.8 | 0.03 | 0.07 | 0.07 | 89 | 1048.3 |
| 20260509151729 | 58 | 206 | 3.5 | 7.8 | 0.02 | 0.06 | 0.06 | 89 | 1048.3 |
| 20260509151706 | 58 | 205 | 4.3 | 7.8 | 0.02 | 0.06 | 0.06 | 89 | 1048.2 |
| 20260509151700 | 58 | 206 | 3.5 | 7.8 | 0.02 | 0.06 | 0.06 | 89 | 1048.2 |
| 20260509151325 | 58 | 214 | 4.3 | 7.8 | 0.02 | 0.06 | 0.06 | 89 | 1048.2 |
| 20260509151223 | 58 | 214 | 4.3 | 7.8 | 0.02 | 0.06 | 0.06 | 89 | 1048.1 |
| 20260509151131 | 58 | 214 | 4.3 | 7.8 | 0.02 | 0.06 | 0.06 | 89 | 1048.1 |
| 20260509151120 | 58 | 211 | 3.5 | 7.8 | 0.02 | 0.06 | 0.06 | 89 | 1048.1 |
| 20260509151112 | 58 | 214 | 3.5 | 7.0 | 0.02 | 0.06 | 0.06 | 89 | 1048.0 |
| 20260509151100 | 58 | 220 | 3.5 | 6.1 | 0.02 | 0.06 | 0.05 | 89 | 1047.9 |
| 20260509151053 | 58 | 222 | 3.5 | 6.1 | 0.02 | 0.06 | 0.05 | 89 | 1047.9 |
| 20260509151045 | 58 | 220 | 2.6 | 6.1 | 0.02 | 0.05 | 0.05 | 89 | 1047.9 |
| 20260509151032 | 58 | 230 | 2.6 | 4.3 | 0.02 | 0.05 | 0.05 | 89 | 1047.7 |
| 20260509150539 | 58 | 68 | 1.7 | 4.3 | 0.02 | 0.05 | 0.05 | 89 | 1047.4 |
| 20260509150219 | 58 | 68 | 1.7 | 4.3 | 0.02 | 0.05 | 0.05 | 89 | 1047.2 |
| 20260509150118 | 58 | 67 | 1.7 | 4.3 | 0.02 | 0.05 | 0.05 | 88 | 1047.1 |
| 20260509150019 | 58 | 66 | 1.7 | 3.5 | 0.02 | 0.05 | 0.05 | 88 | 1047.0 |
| 20260509145915 | 58 | 66 | 1.7 | 5.2 | 0.02 | 0.05 | 0.05 | 88 | 1046.8 |
| 20260509145816 | 58 | 66 | 1.7 | 5.2 | 0.02 | 0.05 | 0.05 | 88 | 1046.7 |
| 20260509145715 | 58 | 66 | 2.6 | 5.2 | 0.02 | 0.05 | 0.05 | 88 | 1046.6 |
| 20260509145615 | 58 | 66 | 2.6 | 6.1 | 0.02 | 0.05 | 0.05 | 87 | 1046.5 |
| 20260509145554 | 58 | 66 | 2.6 | 7.0 | 0.02 | 0.05 | 0.05 | 87 | 1046.4 |
| 20260509145546 | 58 | 66 | 3.5 | 7.0 | 0.02 | 0.05 | 0.05 | 87 | 1046.4 |
| 20260509145537 | 58 | 65 | 3.5 | 7.0 | 0.02 | 0.05 | 0.05 | 87 | 1046.3 |
| 20260509145530 | 58 | 66 | 3.5 | 7.0 | 0.02 | 0.05 | 0.05 | 87 | 1046.3 |
| 20260509145517 | 58 | 66 | 3.5 | 7.0 | 0.02 | 0.05 | 0.04 | 87 | 1046.2 |
| 20260509145510 | 58 | 65 | 3.5 | 7.0 | 0.02 | 0.04 | 0.04 | 87 | 1046.2 |
| 20260509145501 | 58 | 65 | 3.5 | 7.0 | 0.02 | 0.04 | 0.04 | 87 | 1046.1 |
| 20260509145455 | 58 | 65 | 3.5 | 7.0 | 0.02 | 0.04 | 0.04 | 87 | 1046.0 |
| 20260509145444 | 59 | 60 | 4.3 | 7.0 | 0.02 | 0.04 | 0.04 | 87 | 1046.0 |
| 20260509144734 | 59 | 77 | 4.3 | 7.8 | 0.03 | 0.04 | 0.04 | 87 | 1045.9 |
| 20260509144724 | 59 | 68 | 4.3 | 7.8 | 0.03 | 0.04 | 0.04 | 87 | 1045.9 |
| 20260509144713 | 59 | 156 | 4.3 | 7.8 | 0.03 | 0.04 | 0.04 | 87 | 1046.0 |
| 20260509144113 | 59 | 68 | 4.3 | 7.8 | 0.03 | 0.04 | 0.04 | 87 | 1046.1 |
| 20260509144024 | 59 | 72 | 3.5 | 7.8 | 0.03 | 0.04 | 0.04 | 87 | 1046.1 |
| 20260509143913 | 59 | 77 | 3.5 | 7.8 | 0.03 | 0.04 | 0.04 | 88 | 1046.0 |
| 20260509143832 | 59 | 75 | 3.5 | 7.8 | 0.03 | 0.04 | 0.04 | 88 | 1046.1 |
| 20260509143813 | 59 | 83 | 3.5 | 7.8 | 0.03 | 0.04 | 0.04 | 88 | 1046.1 |
| 20260509143709 | 59 | 74 | 3.5 | 7.0 | 0.03 | 0.04 | 0.04 | 88 | 1046.0 |
| 20260509143608 | 59 | 91 | 3.5 | 7.8 | 0.03 | 0.04 | 0.04 | 88 | 1045.9 |
| 20260509143511 | 59 | 81 | 3.5 | 7.8 | 0.03 | 0.04 | 0.04 | 88 | 1045.9 |
| 20260509143406 | 59 | 79 | 3.5 | 7.8 | 0.04 | 0.04 | 0.04 | 88 | 1045.9 |
| 20260509143333 | 59 | 78 | 3.5 | 7.8 | 0.04 | 0.04 | 0.04 | 87 | 1045.9 |
| 20260509143306 | 59 | 73 | 3.5 | 7.8 | 0.04 | 0.04 | 0.04 | 87 | 1045.9 |
| 20260509143207 | 59 | 83 | 3.5 | 7.8 | 0.04 | 0.04 | 0.04 | 87 | 1045.9 |
| 20260509143107 | 59 | 84 | 4.3 | 7.8 | 0.04 | 0.04 | 0.04 | 87 | 1045.9 |
| 20260509143004 | 59 | 85 | 4.3 | 7.8 | 0.04 | 0.04 | 0.04 | 87 | 1046.0 |
| 20260509142904 | 59 | 85 | 4.3 | 7.8 | 0.04 | 0.04 | 0.04 | 87 | 1046.0 |
| 20260509142832 | 60 | 82 | 4.3 | 7.8 | 0.04 | 0.04 | 0.04 | 87 | 1045.9 |
| 20260509142805 | 60 | 67 | 4.3 | 7.8 | 0.04 | 0.04 | 0.04 | 87 | 1045.9 |
| 20260509142704 | 60 | 64 | 3.5 | 7.8 | 0.04 | 0.04 | 0.04 | 87 | 1046.0 |
| 20260509142603 | 60 | 63 | 3.5 | 7.8 | 0.04 | 0.04 | 0.04 | 87 | 1045.9 |
| 20260509142503 | 60 | 64 | 3.5 | 7.8 | 0.04 | 0.04 | 0.04 | 87 | 1045.9 |
| 20260509142404 | 60 | 62 | 3.5 | 7.8 | 0.04 | 0.04 | 0.04 | 87 | 1045.9 |
| 20260509142333 | 60 | 64 | 3.5 | 7.8 | 0.04 | 0.04 | 0.04 | 87 | 1045.9 |
| 20260509142320 | 60 | 58 | 3.5 | 7.8 | 0.04 | 0.04 | 0.04 | 87 | 1045.9 |
| 20260509142313 | 60 | 59 | 3.5 | 7.8 | 0.04 | 0.04 | 0.04 | 87 | 1045.8 |
| 20260509142300 | 60 | 45 | 2.6 | 5.2 | 0.04 | 0.04 | 0.04 | 87 | 1045.8 |
| 20260509142036 | 60 | 41 | 2.6 | 5.2 | 0.04 | 0.04 | 0.04 | 87 | 1045.8 |
| 20260509142027 | 60 | 34 | 2.6 | 5.2 | 0.04 | 0.04 | 0.04 | 87 | 1045.8 |
| 20260509141703 | 60 | 35 | 2.6 | 5.2 | 0.04 | 0.04 | 0.04 | 87 | 1045.8 |
| 20260509141600 | 60 | 25 | 2.6 | 6.1 | 0.04 | 0.04 | 0.04 | 87 | 1045.8 |
| 20260509141454 | 60 | 24 | 2.6 | 6.1 | 0.04 | 0.04 | 0.04 | 87 | 1045.8 |
| 20260509141354 | 60 | 52 | 2.6 | 6.1 | 0.04 | 0.04 | 0.04 | 87 | 1045.8 |
| 20260509141333 | 60 | 52 | 3.5 | 6.1 | 0.04 | 0.04 | 0.04 | 87 | 1045.9 |
| 20260509141255 | 60 | 52 | 3.5 | 6.1 | 0.04 | 0.04 | 0.03 | 87 | 1045.9 |
| 20260509141219 | 60 | 54 | 2.6 | 6.1 | 0.03 | 0.03 | 0.03 | 87 | 1045.9 |
| 20260509141211 | 60 | 54 | 2.6 | 6.1 | 0.03 | 0.03 | 0.03 | 86 | 1045.9 |
| 20260509140833 | 60 | 68 | 2.6 | 6.1 | 0.03 | 0.03 | 0.03 | 86 | 1045.9 |
| 20260509140745 | 60 | 71 | 2.6 | 6.1 | 0.03 | 0.03 | 0.03 | 86 | 1046.0 |
| 20260509140647 | 60 | 71 | 2.6 | 6.1 | 0.03 | 0.03 | 0.03 | 86 | 1046.0 |
| 20260509140544 | 60 | 83 | 2.6 | 5.2 | 0.03 | 0.03 | 0.03 | 86 | 1046.1 |
| 20260509140442 | 60 | 84 | 2.6 | 5.2 | 0.03 | 0.03 | 0.03 | 86 | 1046.1 |
| 20260509140343 | 60 | 84 | 2.6 | 5.2 | 0.03 | 0.03 | 0.03 | 86 | 1046.1 |
| 20260509140331 | 60 | 84 | 1.7 | 5.2 | 0.03 | 0.03 | 0.03 | 86 | 1046.1 |
| 20260509140245 | 60 | 85 | 1.7 | 5.2 | 0.03 | 0.03 | 0.03 | 85 | 1046.1 |
| 20260509140141 | 60 | 85 | 1.7 | 5.2 | 0.03 | 0.03 | 0.03 | 85 | 1046.2 |
| 20260509140040 | 60 | 85 | 1.7 | 5.2 | 0.03 | 0.03 | 0.03 | 85 | 1046.2 |
| 20260509135941 | 60 | 85 | 1.7 | 5.2 | 0.03 | 0.03 | 0.03 | 85 | 1046.3 |
| 20260509135829 | 60 | 85 | 1.7 | 5.2 | 0.03 | 0.03 | 0.03 | 85 | 1046.3 |
| 20260509135741 | 60 | 87 | 1.7 | 4.3 | 0.03 | 0.03 | 0.03 | 84 | 1046.3 |
| 20260509135641 | 60 | 87 | 1.7 | 3.5 | 0.03 | 0.03 | 0.03 | 84 | 1046.4 |
| 20260509135538 | 60 | 87 | 1.7 | 3.5 | 0.03 | 0.03 | 0.02 | 84 | 1046.5 |
| 20260509135436 | 60 | 87 | 1.7 | 3.5 | 0.02 | 0.02 | 0.02 | 84 | 1046.5 |
| 20260509135331 | 60 | 87 | 1.7 | 3.5 | 0.02 | 0.02 | 0.02 | 84 | 1046.5 |
| 20260509135233 | 60 | 87 | 1.7 | 3.5 | 0.02 | 0.02 | 0.02 | 83 | 1046.5 |
| 20260509135204 | 61 | 87 | 1.7 | 3.5 | 0.02 | 0.02 | 0.02 | 83 | 1046.6 |
| 20260509135156 | 61 | 87 | 1.7 | 3.5 | 0.02 | 0.02 | 0.02 | 83 | 1046.6 |
| 20260509134850 | 61 | 87 | 1.7 | 3.5 | 0.02 | 0.02 | 0.02 | 83 | 1046.7 |
| 20260509134841 | 61 | 87 | 1.7 | 3.5 | 0.02 | 0.02 | 0.02 | 82 | 1046.7 |
| 20260509134831 | 61 | 87 | 1.7 | 3.5 | 0.02 | 0.02 | 0.01 | 82 | 1046.8 |
| 20260509134822 | 61 | 87 | 1.7 | 3.5 | 0.01 | 0.01 | 0.01 | 82 | 1046.8 |
| 20260509134816 | 61 | 87 | 1.7 | 3.5 | 0.01 | 0.01 | 0.01 | 82 | 1046.8 |
| 20260509134807 | 61 | 87 | 1.7 | 3.5 | 0.01 | 0.01 | 0.01 | 82 | 1046.8 |
| 20260509134230 | 61 | 88 | 0.9 | 3.5 | 0.01 | 0.01 | 0.01 | 82 | 1046.9 |
| 20260509134130 | 61 | 89 | 0.9 | 3.5 | 0.01 | 0.01 | 0.01 | 82 | 1046.9 |
| 20260509134108 | 61 | 89 | 0.9 | 3.5 | 0.01 | 0.01 | 0.01 | 82 | 1047.0 |
| 20260509134100 | 61 | 89 | 0.9 | 2.6 | 0.01 | 0.01 | 0.01 | 81 | 1047.0 |
| 20260509133827 | 61 | 89 | 0.9 | 2.6 | 0.01 | 0.01 | 0.01 | 81 | 1047.1 |
| 20260509133724 | 61 | 89 | 0.9 | 2.6 | 0.01 | 0.01 | 0.01 | 80 | 1047.1 |
| 20260509133622 | 61 | 89 | 0.9 | 2.6 | 0.01 | 0.01 | 0.01 | 80 | 1047.1 |
| 20260509133522 | 61 | 89 | 0.9 | 2.6 | 0.01 | 0.01 | 0.01 | 80 | 1047.1 |
| 20260509133427 | 62 | 89 | 0.9 | 2.6 | 0.01 | 0.01 | 0.00 | 80 | 1047.1 |
| 20260509133413 | 62 | 89 | 0.9 | 2.6 | 0.00 | 0.00 | 0.00 | 79 | 1047.2 |
| 20260509133356 | 62 | 89 | 0.9 | 2.6 | 0.00 | 0.00 | 0.00 | 79 | 1047.2 |
| 20260509133132 | 62 | 89 | 0.9 | 1.7 | 0.00 | 0.00 | 0.00 | 79 | 1047.2 |
| 20260509132815 | 62 | 89 | 0.9 | 1.7 | 0.00 | 0.00 | 0.00 | 78 | 1047.2 |
| 20260509132710 | 62 | 89 | 0.9 | 1.7 | 0.00 | 0.00 | 0.00 | 78 | 1047.2 |
| 20260509132658 | 62 | 89 | 0.9 | 1.7 | 0.00 | 0.00 | 0.00 | 78 | 1047.2 |
| 20260509132651 | 62 | 89 | 0.0 | 1.7 | 0.00 | 0.00 | 0.00 | 79 | 1047.2 |
| 20260509132641 | 62 | 89 | 0.9 | 1.7 | 0.00 | 0.00 | 0.00 | 79 | 1047.3 |
| 20260509132624 | 62 | 89 | 0.9 | 1.7 | 0.00 | 0.00 | 0.00 | 78 | 1047.2 |
| 20260509132616 | 62 | 90 | 0.9 | 2.6 | 0.00 | 0.00 | 0.00 | 78 | 1047.2 |
| 20260509132609 | 62 | 89 | 0.9 | 2.6 | 0.00 | 0.00 | 0.00 | 78 | 1047.3 |
| 20260509132554 | 62 | 89 | 0.9 | 2.6 | 0.00 | 0.00 | 0.00 | 78 | 1047.3 |
| 20260509132549 | 62 | 89 | 0.9 | 2.6 | 0.00 | 0.00 | 0.00 | 78 | 1047.3 |
| 20260509132314 | 62 | 89 | 0.9 | 2.6 | 0.00 | 0.00 | 0.00 | 78 | 1047.3 |
| 20260509132307 | 62 | 89 | 0.9 | 2.6 | 0.00 | 0.00 | 0.00 | 78 | 1047.3 |
| 20260509132044 | 62 | 89 | 0.9 | 2.6 | 0.00 | 0.00 | 0.00 | 77 | 1047.4 |
| 20260509132036 | 62 | 89 | 0.9 | 3.5 | 0.00 | 0.00 | 0.00 | 77 | 1047.4 |
| 20260509132016 | 62 | 89 | 0.9 | 3.5 | 0.00 | 0.00 | 0.00 | 77 | 1047.4 |
| 20260509132005 | 62 | 89 | 0.9 | 5.2 | 0.00 | 0.00 | 0.00 | 77 | 1047.5 |
| 20260509131735 | 62 | 89 | 0.9 | 5.2 | 0.00 | 0.00 | 0.00 | 77 | 1047.5 |
| 20260509131726 | 62 | 89 | 0.9 | 5.2 | 0.00 | 0.00 | 0.00 | 77 | 1047.5 |
| 20260509131008 | 62 | 89 | 1.7 | 5.2 | 0.00 | 0.00 | 0.00 | 77 | 1047.5 |
| 20260509131001 | 62 | 89 | 1.7 | 5.2 | 0.00 | 0.00 | 0.00 | 77 | 1047.5 |
| 20260509130156 | 62 | 87 | 2.6 | 7.0 | 0.00 | 0.00 | 0.00 | 77 | 1047.6 |
| 20260509130052 | 62 | 88 | 2.6 | 7.0 | 0.00 | 0.00 | 0.00 | 77 | 1047.6 |
| 20260509125949 | 62 | 87 | 2.6 | 7.0 | 0.00 | 0.00 | 0.00 | 77 | 1047.6 |
| 20260509125849 | 62 | 87 | 3.5 | 7.0 | 0.00 | 0.00 | 0.00 | 77 | 1047.5 |
| 20260509125807 | 62 | 87 | 3.5 | 7.0 | 0.00 | 0.00 | 0.00 | 77 | 1047.6 |
| 20260509125747 | 62 | 87 | 3.5 | 7.0 | 0.00 | 0.00 | 0.00 | 77 | 1047.6 |
| 20260509125647 | 62 | 87 | 3.5 | 7.0 | 0.00 | 0.00 | 0.00 | 77 | 1047.5 |
| 20260509125546 | 62 | 87 | 2.6 | 7.0 | 0.00 | 0.00 | 0.00 | 77 | 1047.5 |
| 20260509125536 | 62 | 87 | 2.6 | 7.0 | 0.00 | 0.00 | 0.00 | 76 | 1047.5 |
| 20260509125527 | 62 | 76 | 2.6 | 7.0 | 0.00 | 0.00 | 0.00 | 77 | 1047.4 |
| 20260509125518 | 62 | 77 | 2.6 | 7.0 | 0.00 | 0.00 | 0.00 | 77 | 1047.4 |
| 20260509125505 | 62 | 163 | 2.6 | 7.0 | 0.00 | 0.00 | 0.00 | 76 | 1047.4 |
| 20260509125455 | 62 | 128 | 2.6 | 6.1 | 0.00 | 0.00 | 0.00 | 76 | 1047.4 |
| 20260509125228 | 62 | 63 | 2.6 | 6.1 | 0.00 | 0.00 | 0.00 | 76 | 1047.3 |
| 20260509125209 | 62 | 74 | 2.6 | 6.1 | 0.00 | 0.00 | 0.00 | 76 | 1047.3 |
| 20260509124945 | 62 | 74 | 2.6 | 7.0 | 0.00 | 0.00 | 0.00 | 76 | 1047.3 |
| 20260509124937 | 62 | 74 | 2.6 | 7.0 | 0.00 | 0.00 | 0.00 | 76 | 1047.3 |
| 20260509124445 | 62 | 74 | 2.6 | 7.0 | 0.00 | 0.00 | 0.00 | 76 | 1047.3 |
| 20260509124428 | 62 | 74 | 2.6 | 7.0 | 0.00 | 0.00 | 0.00 | 76 | 1047.2 |
| 20260509124205 | 62 | 65 | 2.6 | 7.0 | 0.00 | 0.00 | 0.00 | 76 | 1047.2 |
| 20260509124149 | 62 | 64 | 2.6 | 7.0 | 0.00 | 0.00 | 0.00 | 75 | 1047.2 |
| 20260509124125 | 62 | 63 | 2.6 | 7.0 | 0.00 | 0.00 | 0.00 | 75 | 1047.1 |
| 20260509123858 | 62 | 143 | 2.6 | 6.1 | 0.00 | 0.00 | 0.00 | 75 | 1047.1 |
| 20260509123548 | 62 | 145 | 2.6 | 6.1 | 0.00 | 0.00 | 0.00 | 75 | 1047.1 |
| 20260509123540 | 62 | 145 | 2.6 | 6.1 | 0.00 | 0.00 | 0.00 | 75 | 1047.0 |
| 20260509123526 | 62 | 145 | 3.5 | 7.8 | 0.00 | 0.00 | 0.00 | 75 | 1047.0 |
| 20260509123239 | 62 | 145 | 3.5 | 8.7 | 0.00 | 0.00 | 0.00 | 75 | 1046.9 |
| 20260509123139 | 62 | 145 | 3.5 | 8.7 | 0.00 | 0.00 | 0.00 | 75 | 1046.9 |
| 20260509123049 | 62 | 145 | 4.3 | 9.6 | 0.00 | 0.00 | 0.00 | 75 | 1046.8 |
| 20260509123039 | 62 | 145 | 4.3 | 10.4 | 0.00 | 0.00 | 0.00 | 75 | 1046.8 |
| 20260509123027 | 62 | 144 | 4.3 | 10.4 | 0.00 | 0.00 | 0.00 | 75 | 1046.8 |
| 20260509122739 | 62 | 145 | 4.3 | 10.4 | 0.00 | 0.00 | 0.00 | 74 | 1046.7 |
| 20260509122637 | 62 | 54 | 4.3 | 10.4 | 0.00 | 0.00 | 0.00 | 74 | 1046.7 |
| 20260509122536 | 62 | 54 | 4.3 | 10.4 | 0.00 | 0.00 | 0.00 | 75 | 1046.7 |
| 20260509122437 | 62 | 79 | 4.3 | 10.4 | 0.00 | 0.00 | 0.00 | 74 | 1046.6 |
| 20260509122338 | 62 | 54 | 4.3 | 10.4 | 0.00 | 0.00 | 0.00 | 75 | 1046.6 |
| 20260509122306 | 62 | 58 | 4.3 | 10.4 | 0.00 | 0.00 | 0.00 | 75 | 1046.6 |
| 20260509122236 | 62 | 49 | 4.3 | 10.4 | 0.00 | 0.00 | 0.00 | 75 | 1046.5 |
| 20260509122136 | 62 | 61 | 4.3 | 10.4 | 0.00 | 0.00 | 0.00 | 75 | 1046.5 |
| 20260509122108 | 62 | 55 | 3.5 | 10.4 | 0.00 | 0.00 | 0.00 | 76 | 1046.4 |
| 20260509122059 | 62 | 75 | 4.3 | 7.8 | 0.00 | 0.00 | 0.00 | 76 | 1046.4 |
| 20260509121804 | 62 | 75 | 4.3 | 7.8 | 0.00 | 0.00 | 0.00 | 76 | 1046.5 |
| 20260509121740 | 62 | 75 | 4.3 | 7.8 | 0.00 | 0.00 | 0.00 | 76 | 1046.6 |
| 20260509121636 | 62 | 75 | 3.5 | 7.8 | 0.00 | 0.00 | 0.00 | 76 | 1046.6 |
| 20260509121544 | 62 | 73 | 4.3 | 7.8 | 0.00 | 0.00 | 0.00 | 76 | 1046.7 |
| 20260509121537 | 62 | 72 | 4.3 | 9.6 | 0.00 | 0.00 | 0.00 | 76 | 1046.8 |
| 20260509121523 | 62 | 79 | 4.3 | 9.6 | 0.00 | 0.00 | 0.00 | 77 | 1046.9 |
| 20260509121237 | 62 | 67 | 4.3 | 9.6 | 0.00 | 0.00 | 0.00 | 77 | 1047.0 |
| 20260509121136 | 62 | 67 | 3.5 | 9.6 | 0.00 | 0.00 | 0.00 | 77 | 1047.1 |
| 20260509121034 | 62 | 64 | 3.5 | 9.6 | 0.00 | 0.00 | 0.00 | 77 | 1047.1 |
| 20260509120932 | 62 | 66 | 3.5 | 9.6 | 0.00 | 0.00 | 0.00 | 77 | 1047.2 |
| 20260509120831 | 62 | 66 | 3.5 | 9.6 | 0.00 | 0.00 | 0.00 | 77 | 1047.2 |
| 20260509120805 | 62 | 68 | 3.5 | 9.6 | 0.00 | 0.00 | 0.00 | 77 | 1047.2 |
| 20260509120731 | 62 | 66 | 4.3 | 9.6 | 0.00 | 0.00 | 0.00 | 77 | 1047.1 |
| 20260509120630 | 62 | 67 | 4.3 | 9.6 | 0.00 | 0.00 | 0.00 | 77 | 1047.1 |
| 20260509120530 | 62 | 66 | 3.5 | 9.6 | 0.00 | 0.00 | 0.00 | 77 | 1047.2 |
| 20260509120430 | 62 | 64 | 3.5 | 7.0 | 0.00 | 0.00 | 0.00 | 77 | 1047.2 |
| 20260509120327 | 62 | 99 | 3.5 | 7.0 | 0.00 | 0.00 | 0.00 | 77 | 1047.2 |
| 20260509120305 | 62 | 104 | 3.5 | 7.8 | 0.00 | 0.00 | 0.00 | 77 | 1047.2 |
| 20260509120224 | 62 | 106 | 3.5 | 7.8 | 0.00 | 0.00 | 0.00 | 77 | 1047.3 |
| 20260509120124 | 62 | 107 | 3.5 | 7.8 | 0.00 | 0.00 | 0.00 | 76 | 1047.3 |
| 20260509120054 | 62 | 108 | 3.5 | 7.8 | 0.00 | 0.00 | 0.00 | 77 | 1047.4 |
| 20260509120046 | 62 | 131 | 3.5 | 7.8 | 0.00 | 0.00 | 0.00 | 77 | 1047.4 |
| 20260509115806 | 62 | 73 | 3.5 | 7.8 | 0.00 | 0.00 | 0.00 | 78 | 1047.5 |
| 20260509115722 | 62 | 128 | 3.5 | 7.8 | 0.00 | 0.00 | 0.00 | 77 | 1047.5 |
| 20260509115653 | 62 | 138 | 3.5 | 7.8 | 0.00 | 0.00 | 0.00 | 77 | 1047.6 |
| 20260509115644 | 62 | 145 | 3.5 | 7.8 | 0.00 | 0.00 | 0.00 | 77 | 1047.6 |
| 20260509115314 | 62 | 70 | 3.5 | 7.8 | 0.00 | 0.00 | 0.00 | 77 | 1047.6 |
| 20260509115307 | 62 | 65 | 3.5 | 7.8 | 0.00 | 0.00 | 0.00 | 77 | 1047.6 |
| 20260509115208 | 62 | 108 | 3.5 | 7.8 | 0.00 | 0.00 | 0.00 | 76 | 1047.7 |
| 20260509115108 | 62 | 126 | 3.5 | 7.8 | 0.00 | 0.00 | 0.00 | 76 | 1047.7 |
| 20260509115010 | 62 | 133 | 4.3 | 7.8 | 0.00 | 0.00 | 0.00 | 76 | 1047.8 |
| 20260509114908 | 63 | 133 | 4.3 | 10.4 | 0.00 | 0.00 | 0.00 | 76 | 1047.9 |
| 20260509114807 | 63 | 135 | 4.3 | 10.4 | 0.00 | 0.00 | 0.00 | 76 | 1048.0 |
| 20260509114704 | 63 | 82 | 4.3 | 10.4 | 0.00 | 0.00 | 0.00 | 76 | 1047.9 |
| 20260509114605 | 63 | 138 | 4.3 | 10.4 | 0.00 | 0.00 | 0.00 | 76 | 1047.9 |
| 20260509114504 | 63 | 108 | 4.3 | 10.4 | 0.00 | 0.00 | 0.00 | 76 | 1048.0 |
| 20260509114405 | 63 | 106 | 4.3 | 10.4 | 0.00 | 0.00 | 0.00 | 76 | 1048.0 |
| 20260509114332 | 63 | 108 | 4.3 | 10.4 | 0.00 | 0.00 | 0.00 | 76 | 1048.0 |
| 20260509114309 | 63 | 108 | 4.3 | 10.4 | 0.00 | 0.00 | 0.00 | 75 | 1048.0 |
| 20260509114301 | 63 | 43 | 4.3 | 10.4 | 0.00 | 0.00 | 0.00 | 75 | 1048.0 |
| 20260509114252 | 63 | 145 | 4.3 | 10.4 | 0.00 | 0.00 | 0.00 | 76 | 1048.1 |
| 20260509114244 | 63 | 113 | 4.3 | 8.7 | 0.00 | 0.00 | 0.00 | 76 | 1048.1 |
| 20260509114221 | 63 | 120 | 4.3 | 11.3 | 0.00 | 0.00 | 0.00 | 76 | 1048.2 |
| 20260509113957 | 63 | 85 | 4.3 | 11.3 | 0.00 | 0.00 | 0.00 | 75 | 1048.2 |
| 20260509113934 | 63 | 141 | 4.3 | 11.3 | 0.00 | 0.00 | 0.00 | 75 | 1048.2 |
| 20260509113450 | 63 | 85 | 4.3 | 11.3 | 0.00 | 0.00 | 0.00 | 75 | 1048.3 |
| 20260509113225 | 63 | 96 | 5.2 | 11.3 | 0.00 | 0.00 | 0.00 | 75 | 1048.4 |
| 20260509112903 | 63 | 105 | 4.3 | 12.2 | 0.00 | 0.00 | 0.00 | 76 | 1048.5 |
| 20260509112803 | 63 | 113 | 4.3 | 12.2 | 0.00 | 0.00 | 0.00 | 76 | 1048.5 |
| 20260509112703 | 63 | 112 | 5.2 | 12.2 | 0.00 | 0.00 | 0.00 | 76 | 1048.4 |
| 20260509112604 | 63 | 152 | 5.2 | 12.2 | 0.00 | 0.00 | 0.00 | 76 | 1048.5 |
| 20260509112545 | 63 | 163 | 5.2 | 12.2 | 0.00 | 0.00 | 0.00 | 76 | 1048.5 |
| 20260509112539 | 63 | 108 | 6.1 | 12.2 | 0.00 | 0.00 | 0.00 | 75 | 1048.5 |
| 20260509112525 | 63 | 108 | 6.1 | 12.2 | 0.00 | 0.00 | 0.00 | 75 | 1048.5 |
| 20260509112203 | 63 | 101 | 6.1 | 12.2 | 0.00 | 0.00 | 0.00 | 75 | 1048.5 |
| 20260509112103 | 63 | 142 | 6.1 | 12.2 | 0.00 | 0.00 | 0.00 | 75 | 1048.6 |
| 20260509112004 | 63 | 150 | 6.1 | 11.3 | 0.00 | 0.00 | 0.00 | 76 | 1048.6 |
| 20260509111943 | 63 | 41 | 6.1 | 11.3 | 0.00 | 0.00 | 0.00 | 77 | 1048.5 |
| 20260509111931 | 63 | 64 | 6.1 | 11.3 | 0.00 | 0.00 | 0.00 | 77 | 1048.5 |
| 20260509111924 | 63 | 64 | 6.1 | 11.3 | 0.00 | 0.00 | 0.00 | 77 | 1048.5 |
| 20260509111600 | 63 | 135 | 5.2 | 11.3 | 0.00 | 0.00 | 0.00 | 77 | 1048.6 |
| 20260509111534 | 63 | 147 | 5.2 | 11.3 | 0.00 | 0.00 | 0.00 | 77 | 1048.5 |
| 20260509111528 | 63 | 110 | 5.2 | 10.4 | 0.00 | 0.00 | 0.00 | 78 | 1048.5 |
| 20260509111516 | 63 | 138 | 4.3 | 10.4 | 0.00 | 0.00 | 0.00 | 79 | 1048.4 |
| 20260509111154 | 63 | 67 | 4.3 | 10.4 | 0.00 | 0.00 | 0.00 | 79 | 1048.4 |
| 20260509111054 | 63 | 130 | 4.3 | 8.7 | 0.00 | 0.00 | 0.00 | 80 | 1048.4 |
| 20260509110954 | 63 | 115 | 3.5 | 8.7 | 0.00 | 0.00 | 0.00 | 80 | 1048.4 |
| 20260509110928 | 63 | 94 | 4.3 | 8.7 | 0.00 | 0.00 | 0.00 | 80 | 1048.3 |
| 20260509110918 | 63 | 92 | 4.3 | 8.7 | 0.00 | 0.00 | 0.00 | 80 | 1048.2 |
| 20260509110910 | 63 | 92 | 4.3 | 8.7 | 0.00 | 0.00 | 0.00 | 80 | 1048.2 |
| 20260509110629 | 63 | 96 | 4.3 | 8.7 | 0.00 | 0.00 | 0.00 | 79 | 1048.2 |
| 20260509110621 | 63 | 96 | 4.3 | 8.7 | 0.00 | 0.00 | 0.00 | 79 | 1048.2 |
| 20260509110334 | 63 | 103 | 4.3 | 8.7 | 0.00 | 0.00 | 0.00 | 79 | 1048.2 |
| 20260509110314 | 63 | 106 | 4.3 | 8.7 | 0.00 | 0.00 | 0.00 | 80 | 1048.2 |
| 20260509110305 | 63 | 106 | 4.3 | 8.7 | 0.00 | 0.00 | 0.00 | 80 | 1048.2 |
| 20260509105945 | 63 | 76 | 4.3 | 8.7 | 0.00 | 0.00 | 0.00 | 80 | 1048.1 |
| 20260509105845 | 63 | 99 | 4.3 | 7.8 | 0.00 | 0.00 | 0.00 | 80 | 1048.2 |
| 20260509105820 | 63 | 102 | 4.3 | 7.8 | 0.00 | 0.00 | 0.00 | 80 | 1048.2 |
| 20260509105809 | 63 | 85 | 4.3 | 7.8 | 0.00 | 0.00 | 0.00 | 80 | 1048.2 |
| 20260509105758 | 63 | 62 | 4.3 | 7.8 | 0.00 | 0.00 | 0.00 | 80 | 1048.2 |
| 20260509105523 | 63 | 73 | 4.3 | 7.8 | 0.00 | 0.00 | 0.00 | 80 | 1048.1 |
| 20260509105245 | 63 | 95 | 4.3 | 7.8 | 0.00 | 0.00 | 0.00 | 80 | 1048.1 |
| 20260509105141 | 63 | 105 | 4.3 | 7.8 | 0.00 | 0.00 | 0.00 | 80 | 1048.1 |
| 20260509105041 | 63 | 68 | 4.3 | 7.8 | 0.00 | 0.00 | 0.00 | 80 | 1048.1 |
| 20260509104944 | 63 | 85 | 3.5 | 7.0 | 0.00 | 0.00 | 0.00 | 80 | 1048.1 |
| 20260509104848 | 63 | 95 | 3.5 | 7.0 | 0.00 | 0.00 | 0.00 | 80 | 1048.1 |
| 20260509104836 | 63 | 79 | 3.5 | 7.0 | 0.00 | 0.00 | 0.00 | 80 | 1048.1 |
| 20260509104827 | 63 | 80 | 3.5 | 7.0 | 0.00 | 0.00 | 0.00 | 80 | 1048.1 |
| 20260509104818 | 63 | 51 | 3.5 | 7.0 | 0.00 | 0.00 | 0.00 | 80 | 1048.1 |
| 20260509104809 | 63 | 68 | 3.5 | 6.1 | 0.00 | 0.00 | 0.00 | 80 | 1048.1 |
| 20260509104801 | 63 | 68 | 2.6 | 6.1 | 0.00 | 0.00 | 0.00 | 80 | 1048.2 |
| 20260509104310 | 63 | 62 | 2.6 | 6.1 | 0.00 | 0.00 | 0.00 | 80 | 1048.3 |
| 20260509104302 | 63 | 111 | 2.6 | 5.2 | 0.00 | 0.00 | 0.00 | 80 | 1048.3 |
| 20260509103939 | 63 | 112 | 2.6 | 7.0 | 0.00 | 0.00 | 0.00 | 81 | 1048.3 |
| 20260509103910 | 63 | 114 | 2.6 | 7.0 | 0.00 | 0.00 | 0.00 | 81 | 1048.3 |
| 20260509103859 | 63 | 114 | 2.6 | 7.0 | 0.00 | 0.00 | 0.00 | 81 | 1048.3 |
| 20260509103851 | 63 | 114 | 2.6 | 7.0 | 0.00 | 0.00 | 0.00 | 81 | 1048.4 |
| 20260509103837 | 63 | 116 | 2.6 | 7.0 | 0.00 | 0.00 | 0.00 | 81 | 1048.4 |
| 20260509103608 | 63 | 116 | 2.6 | 7.0 | 0.00 | 0.00 | 0.00 | 81 | 1048.5 |
| 20260509103233 | 62 | 115 | 2.6 | 7.0 | 0.00 | 0.00 | 0.00 | 81 | 1048.5 |
| 20260509103133 | 63 | 115 | 2.6 | 7.0 | 0.00 | 0.00 | 0.00 | 81 | 1048.6 |
| 20260509103033 | 62 | 128 | 2.6 | 7.0 | 0.00 | 0.00 | 0.00 | 81 | 1048.6 |
| 20260509102931 | 62 | 129 | 2.6 | 7.0 | 0.00 | 0.00 | 0.00 | 81 | 1048.6 |
| 20260509102853 | 63 | 130 | 2.6 | 7.0 | 0.00 | 0.00 | 0.00 | 81 | 1048.6 |
| 20260509102841 | 63 | 130 | 2.6 | 7.0 | 0.00 | 0.00 | 0.00 | 81 | 1048.6 |
| 20260509102834 | 63 | 138 | 2.6 | 7.0 | 0.00 | 0.00 | 0.00 | 81 | 1048.6 |
| 20260509102822 | 63 | 138 | 2.6 | 7.0 | 0.00 | 0.00 | 0.00 | 81 | 1048.6 |
| 20260509102554 | 63 | 141 | 2.6 | 7.0 | 0.00 | 0.00 | 0.00 | 81 | 1048.6 |
| 20260509102258 | 62 | 102 | 1.7 | 6.1 | 0.00 | 0.00 | 0.00 | 80 | 1048.6 |
| 20260509102231 | 63 | 104 | 1.7 | 5.2 | 0.00 | 0.00 | 0.00 | 80 | 1048.6 |
| 20260509102130 | 62 | 103 | 1.7 | 5.2 | 0.00 | 0.00 | 0.00 | 80 | 1048.6 |
| 20260509102030 | 62 | 99 | 1.7 | 5.2 | 0.00 | 0.00 | 0.00 | 80 | 1048.6 |
| 20260509101943 | 62 | 96 | 1.7 | 3.5 | 0.00 | 0.00 | 0.00 | 80 | 1048.6 |
| 20260509101933 | 62 | 95 | 1.7 | 3.5 | 0.00 | 0.00 | 0.00 | 80 | 1048.6 |
| 20260509101915 | 62 | 95 | 1.7 | 3.5 | 0.00 | 0.00 | 0.00 | 80 | 1048.6 |
| 20260509101908 | 62 | 95 | 1.7 | 3.5 | 0.00 | 0.00 | 0.00 | 80 | 1048.5 |
| 20260509101900 | 62 | 95 | 1.7 | 3.5 | 0.00 | 0.00 | 0.00 | 80 | 1048.5 |
| 20260509101849 | 62 | 95 | 1.7 | 3.5 | 0.00 | 0.00 | 0.00 | 79 | 1048.5 |
| 20260509101838 | 62 | 95 | 1.7 | 3.5 | 0.00 | 0.00 | 0.00 | 80 | 1048.4 |
| 20260509101027 | 62 | 95 | 1.7 | 3.5 | 0.00 | 0.00 | 0.00 | 80 | 1048.5 |
| 20260509100921 | 62 | 95 | 1.7 | 3.5 | 0.00 | 0.00 | 0.00 | 80 | 1048.5 |
| 20260509100819 | 62 | 95 | 1.7 | 3.5 | 0.00 | 0.00 | 0.00 | 79 | 1048.5 |
| 20260509100757 | 62 | 95 | 1.7 | 3.5 | 0.00 | 0.00 | 0.00 | 79 | 1048.5 |
| 20260509100717 | 62 | 95 | 1.7 | 3.5 | 0.00 | 0.00 | 0.00 | 79 | 1048.5 |
| 20260509100617 | 62 | 95 | 1.7 | 3.5 | 0.00 | 0.00 | 0.00 | 79 | 1048.5 |
| 20260509100517 | 62 | 95 | 2.6 | 5.2 | 0.00 | 0.00 | 0.00 | 79 | 1048.4 |
| 20260509100509 | 63 | 95 | 2.6 | 5.2 | 0.00 | 0.00 | 0.00 | 79 | 1048.4 |
| 20260509100459 | 62 | 95 | 2.6 | 5.2 | 0.00 | 0.00 | 0.00 | 79 | 1048.4 |
| 20260509100450 | 63 | 95 | 2.6 | 5.2 | 0.00 | 0.00 | 0.00 | 79 | 1048.4 |
| 20260509100111 | 63 | 95 | 2.6 | 5.2 | 0.00 | 0.00 | 0.00 | 79 | 1048.5 |
| 20260509100103 | 63 | 95 | 2.6 | 5.2 | 0.00 | 0.00 | 0.00 | 79 | 1048.5 |
| 20260509100055 | 63 | 95 | 2.6 | 5.2 | 0.00 | 0.00 | 0.00 | 79 | 1048.5 |
| 20260509100040 | 62 | 95 | 2.6 | 6.1 | 0.00 | 0.00 | 0.00 | 79 | 1048.5 |
| 20260509100027 | 63 | 95 | 2.6 | 6.1 | 0.00 | 0.00 | 0.00 | 79 | 1048.5 |
| 20260509095804 | 63 | 94 | 3.5 | 6.1 | 0.00 | 0.00 | 0.00 | 79 | 1048.4 |
| 20260509095754 | 63 | 95 | 3.5 | 6.1 | 0.00 | 0.00 | 0.00 | 79 | 1048.5 |
| 20260509095747 | 63 | 95 | 3.5 | 6.1 | 0.00 | 0.00 | 0.00 | 79 | 1048.4 |
| 20260509095209 | 63 | 95 | 3.5 | 6.1 | 0.00 | 0.00 | 0.00 | 79 | 1048.5 |
| 20260509095108 | 63 | 95 | 3.5 | 6.1 | 0.00 | 0.00 | 0.00 | 79 | 1048.4 |
| 20260509095007 | 63 | 95 | 3.5 | 7.0 | 0.00 | 0.00 | 0.00 | 79 | 1048.4 |
| 20260509094925 | 63 | 95 | 3.5 | 7.0 | 0.00 | 0.00 | 0.00 | 79 | 1048.4 |
| 20260509094917 | 63 | 96 | 2.6 | 7.0 | 0.00 | 0.00 | 0.00 | 79 | 1048.3 |
| 20260509094902 | 63 | 96 | 2.6 | 7.0 | 0.00 | 0.00 | 0.00 | 79 | 1048.3 |
| 20260509094850 | 63 | 98 | 2.6 | 7.0 | 0.00 | 0.00 | 0.00 | 79 | 1048.3 |
| 20260509094625 | 63 | 99 | 2.6 | 7.0 | 0.00 | 0.00 | 0.00 | 79 | 1048.3 |
| 20260509094321 | 63 | 98 | 1.7 | 7.0 | 0.00 | 0.00 | 0.00 | 80 | 1048.3 |
| 20260509094312 | 63 | 100 | 2.6 | 7.0 | 0.00 | 0.00 | 0.00 | 80 | 1048.3 |
| 20260509094304 | 63 | 100 | 2.6 | 7.0 | 0.00 | 0.00 | 0.00 | 79 | 1048.3 |
| 20260509094252 | 63 | 100 | 2.6 | 7.0 | 0.00 | 0.00 | 0.00 | 79 | 1048.3 |
| 20260509094239 | 63 | 101 | 2.6 | 5.2 | 0.00 | 0.00 | 0.00 | 80 | 1048.3 |
| 20260509094001 | 63 | 101 | 2.6 | 9.6 | 0.00 | 0.00 | 0.00 | 79 | 1048.2 |
| 20260509093731 | 63 | 101 | 2.6 | 9.6 | 0.00 | 0.00 | 0.00 | 80 | 1048.3 |
| 20260509093724 | 63 | 101 | 3.5 | 9.6 | 0.00 | 0.00 | 0.00 | 80 | 1048.2 |
| 20260509093358 | 62 | 102 | 3.5 | 9.6 | 0.00 | 0.00 | 0.00 | 80 | 1048.3 |
| 20260509093240 | 62 | 100 | 3.5 | 9.6 | 0.00 | 0.00 | 0.00 | 80 | 1048.2 |
| 20260509093159 | 62 | 100 | 3.5 | 9.6 | 0.00 | 0.00 | 0.00 | 80 | 1048.2 |
| 20260509093100 | 62 | 101 | 3.5 | 9.6 | 0.00 | 0.00 | 0.00 | 79 | 1048.2 |
| 20260509092959 | 62 | 100 | 3.5 | 9.6 | 0.00 | 0.00 | 0.00 | 79 | 1048.2 |
| 20260509092859 | 62 | 102 | 3.5 | 9.6 | 0.00 | 0.00 | 0.00 | 79 | 1048.2 |
| 20260509092759 | 62 | 131 | 3.5 | 8.7 | 0.00 | 0.00 | 0.00 | 80 | 1048.1 |
| 20260509092736 | 62 | 65 | 4.3 | 8.7 | 0.00 | 0.00 | 0.00 | 79 | 1048.1 |
| 20260509092659 | 62 | 62 | 4.3 | 8.7 | 0.00 | 0.00 | 0.00 | 79 | 1048.1 |
| 20260509092559 | 62 | 62 | 4.3 | 8.7 | 0.00 | 0.00 | 0.00 | 79 | 1048.1 |
| 20260509092459 | 62 | 62 | 4.3 | 8.7 | 0.00 | 0.00 | 0.00 | 79 | 1048.0 |
| 20260509092358 | 62 | 62 | 4.3 | 8.7 | 0.00 | 0.00 | 0.00 | 79 | 1048.0 |
| 20260509092236 | 62 | 66 | 4.3 | 8.7 | 0.00 | 0.00 | 0.00 | 79 | 1048.1 |
| 20260509092157 | 62 | 65 | 4.3 | 8.7 | 0.00 | 0.00 | 0.00 | 79 | 1048.1 |
| 20260509092056 | 62 | 112 | 4.3 | 7.8 | 0.00 | 0.00 | 0.00 | 79 | 1048.1 |
| 20260509091957 | 62 | 112 | 4.3 | 7.8 | 0.00 | 0.00 | 0.00 | 79 | 1048.1 |
| 20260509091855 | 62 | 112 | 4.3 | 7.8 | 0.00 | 0.00 | 0.00 | 79 | 1048.0 |
| 20260509091813 | 62 | 44 | 4.3 | 7.8 | 0.00 | 0.00 | 0.00 | 79 | 1047.9 |
| 20260509091804 | 62 | 62 | 4.3 | 7.8 | 0.00 | 0.00 | 0.00 | 79 | 1047.9 |
| 20260509091754 | 62 | 91 | 4.3 | 7.8 | 0.00 | 0.00 | 0.00 | 79 | 1047.9 |
| 20260509091743 | 62 | 46 | 4.3 | 7.8 | 0.00 | 0.00 | 0.00 | 79 | 1047.8 |
| 20260509091518 | 62 | 90 | 4.3 | 7.8 | 0.00 | 0.00 | 0.00 | 80 | 1047.8 |
| 20260509091502 | 62 | 109 | 4.3 | 7.8 | 0.00 | 0.00 | 0.00 | 80 | 1047.9 |
| 20260509091453 | 62 | 110 | 4.3 | 7.8 | 0.00 | 0.00 | 0.00 | 80 | 1047.9 |
| 20260509091445 | 62 | 112 | 4.3 | 7.8 | 0.00 | 0.00 | 0.00 | 80 | 1047.9 |
| 20260509091437 | 62 | 79 | 4.3 | 7.8 | 0.00 | 0.00 | 0.00 | 79 | 1048.0 |